Time,TemperatureF,DewpointF,PressureIn,WindDirection,WindDirectionDegrees,WindSpeedMPH,WindSpeedGustMPH,Humidity,HourlyPrecipIn,Conditions,Clouds,dailyrainin,SoftwareType,DateUTC
2013-09-13 00:01:00,67.4,56.9,30.11,NE,48,7.0,7.0,69,0.00,,---,0.00,VWS V14.01,2013-09-13 05:01:00,
2013-09-13 00:02:00,67.4,56.9,30.11,NE,48,5.0,9.0,69,0.00,,---,0.00,VWS V14.01,2013-09-13 05:02:00,
2013-09-13 00:04:00,67.4,56.9,30.11,NE,49,5.0,9.0,69,0.00,,---,0.00,VWS V14.01,2013-09-13 05:04:00,
2013-09-13 00:06:00,67.3,56.8,30.11,NE,55,4.0,9.0,69,0.00,,---,0.00,VWS V14.01,2013-09-13 05:06:00,
2013-09-13 00:07:00,67.3,56.8,30.11,NE,49,2.0,9.0,69,0.00,,---,0.00,VWS V14.01,2013-09-13 05:07:00,
2013-09-13 00:09:00,67.3,56.8,30.11,NE,47,4.0,9.0,69,0.00,,---,0.00,VWS V14.01,2013-09-13 05:09:00,
2013-09-13 00:10:00,67.3,56.8,30.11,NE,50,3.0,9.0,69,0.00,,---,0.00,VWS V14.01,2013-09-13 05:10:00,
2013-09-13 00:11:00,67.3,56.8,30.11,NE,48,6.0,6.0,69,0.00,,---,0.00,VWS V14.01,2013-09-13 05:11:00,
2013-09-13 00:13:00,67.3,56.8,30.11,NE,47,4.0,6.0,69,0.00,,---,0.00,VWS V14.01,2013-09-13 05:13:00,
2013-09-13 00:15:00,67.1,56.6,30.11,NE,44,3.0,6.0,69,0.00,,---,0.00,VWS V14.01,2013-09-13 05:15:00,
2013-09-13 00:16:00,67.1,56.6,30.11,NE,45,0.0,6.0,69,0.00,,---,0.00,VWS V14.01,2013-09-13 05:16:00,
2013-09-13 00:18:00,67.1,56.6,30.11,NE,42,4.0,6.0,69,0.00,,---,0.00,VWS V14.01,2013-09-13 05:18:00,
2013-09-13 00:20:00,67.1,56.2,30.11,NE,43,3.0,6.0,68,0.00,,---,0.00,VWS V14.01,2013-09-13 05:20:00,
2013-09-13 00:21:00,67.1,56.2,30.11,NE,34,0.0,5.0,68,0.00,,---,0.00,VWS V14.01,2013-09-13 05:21:00,
2013-09-13 00:23:00,67.1,56.2,30.11,NE,48,4.0,6.0,68,0.00,,---,0.00,VWS V14.01,2013-09-13 05:23:00,
2013-09-13 00:25:00,67.3,56.0,30.11,NE,45,3.0,7.0,67,0.00,,---,0.00,VWS V14.01,2013-09-13 05:25:00,
2013-09-13 00:26:00,67.3,56.0,30.11,NE,51,3.0,7.0,67,0.00,,---,0.00,VWS V14.01,2013-09-13 05:26:00,
2013-09-13 00:28:00,67.3,56.0,30.11,NE,47,0.0,7.0,67,0.00,,---,0.00,VWS V14.01,2013-09-13 05:28:00,
2013-09-13 00:30:00,67.3,55.6,30.11,NE,40,1.0,9.0,66,0.00,,---,0.00,VWS V14.01,2013-09-13 05:30:00,
2013-09-13 00:31:00,67.3,55.6,30.11,NE,51,2.0,4.0,66,0.00,,---,0.00,VWS V14.01,2013-09-13 05:31:00,
2013-09-13 00:32:00,67.3,55.6,30.11,NE,39,5.0,5.0,66,0.00,,---,0.00,VWS V14.01,2013-09-13 05:32:00,
2013-09-13 00:33:00,67.3,55.6,30.11,NE,38,5.0,8.0,66,0.00,,---,0.00,VWS V14.01,2013-09-13 05:33:00,
2013-09-13 00:35:00,67.3,55.6,30.11,NE,43,3.0,8.0,66,0.00,,---,0.00,VWS V14.01,2013-09-13 05:35:00,
2013-09-13 00:36:00,67.3,55.6,30.11,NE,53,6.0,8.0,66,0.00,,---,0.00,VWS V14.01,2013-09-13 05:36:00,
2013-09-13 00:37:00,67.3,55.6,30.11,NE,40,2.0,8.0,66,0.00,,---,0.00,VWS V14.01,2013-09-13 05:37:00,
2013-09-13 00:38:00,67.3,55.6,30.11,NE,39,0.0,8.0,66,0.00,,---,0.00,VWS V14.01,2013-09-13 05:38:00,
2013-09-13 00:40:00,67.1,55.4,30.11,NE,43,3.0,8.0,66,0.00,,---,0.00,VWS V14.01,2013-09-13 05:40:00,
2013-09-13 00:41:00,67.1,55.4,30.11,NE,38,4.0,4.0,66,0.00,,---,0.00,VWS V14.01,2013-09-13 05:41:00,
2013-09-13 00:42:00,67.1,55.4,30.11,NE,44,4.0,4.0,66,0.00,,---,0.00,VWS V14.01,2013-09-13 05:42:00,
2013-09-13 00:43:00,67.1,55.4,30.11,NE,44,4.0,5.0,66,0.00,,---,0.00,VWS V14.01,2013-09-13 05:43:00,
2013-09-13 00:46:00,67.1,55.4,30.11,NE,39,5.0,6.0,66,0.00,,---,0.00,VWS V14.01,2013-09-13 05:46:00,
2013-09-13 00:47:00,67.1,55.4,30.11,NE,46,2.0,6.0,66,0.00,,---,0.00,VWS V14.01,2013-09-13 05:47:00,
2013-09-13 00:48:00,67.1,55.4,30.11,NE,44,0.0,6.0,66,0.00,,---,0.00,VWS V14.01,2013-09-13 05:48:00,
2013-09-13 00:51:00,66.9,55.2,30.11,NE,41,0.0,0.0,66,0.00,,---,0.00,VWS V14.01,2013-09-13 05:51:00,
2013-09-13 00:52:00,66.9,55.2,30.11,NE,43,3.0,4.0,66,0.00,,---,0.00,VWS V14.01,2013-09-13 05:52:00,
2013-09-13 00:54:00,66.9,55.2,30.11,NNE,30,2.0,5.0,66,0.00,,---,0.00,VWS V14.01,2013-09-13 05:54:00,
2013-09-13 00:56:00,66.9,55.2,30.11,NE,36,1.0,6.0,66,0.00,,---,0.00,VWS V14.01,2013-09-13 05:56:00,
2013-09-13 00:57:00,66.9,55.2,30.11,NE,39,2.0,6.0,66,0.00,,---,0.00,VWS V14.01,2013-09-13 05:57:00,
2013-09-13 00:59:00,66.8,55.1,30.11,NE,40,0.0,6.0,66,0.00,,---,0.00,VWS V14.01,2013-09-13 05:59:00,
2013-09-13 01:01:00,66.8,55.5,30.11,NE,45,3.0,6.0,67,0.00,,---,0.00,VWS V14.01,2013-09-13 06:01:00,
2013-09-13 01:02:00,66.8,55.5,30.11,NE,46,4.0,6.0,67,0.00,,---,0.00,VWS V14.01,2013-09-13 06:02:00,
2013-09-13 01:04:00,66.6,55.3,30.11,NE,48,4.0,9.0,67,0.00,,---,0.00,VWS V14.01,2013-09-13 06:04:00,
2013-09-13 01:06:00,66.6,55.3,30.11,NE,45,5.0,9.0,67,0.00,,---,0.00,VWS V14.01,2013-09-13 06:06:00,
2013-09-13 01:07:00,66.4,55.1,30.11,NE,49,6.0,9.0,67,0.00,,---,0.00,VWS V14.01,2013-09-13 06:07:00,
2013-09-13 01:09:00,66.4,55.1,30.11,NE,44,4.0,9.0,67,0.00,,---,0.00,VWS V14.01,2013-09-13 06:09:00,
2013-09-13 01:11:00,66.3,55.4,30.11,NE,43,3.0,6.0,68,0.00,,---,0.00,VWS V14.01,2013-09-13 06:11:00,
2013-09-13 01:12:00,66.3,55.4,30.11,NE,44,3.0,6.0,68,0.00,,---,0.00,VWS V14.01,2013-09-13 06:12:00,
2013-09-13 01:15:00,66.0,55.2,30.11,NE,47,4.0,6.0,68,0.00,,---,0.00,VWS V14.01,2013-09-13 06:15:00,
2013-09-13 01:16:00,66.0,55.5,30.11,NE,48,3.0,6.0,69,0.00,,---,0.00,VWS V14.01,2013-09-13 06:16:00,
2013-09-13 01:17:00,66.0,55.5,30.11,NE,45,4.0,6.0,69,0.00,,---,0.00,VWS V14.01,2013-09-13 06:17:00,
2013-09-13 01:20:00,65.8,55.4,30.11,NE,49,3.0,7.0,69,0.00,,---,0.00,VWS V14.01,2013-09-13 06:20:00,
2013-09-13 01:21:00,65.6,55.2,30.11,NE,47,4.0,5.0,69,0.00,,---,0.00,VWS V14.01,2013-09-13 06:21:00,
2013-09-13 01:22:00,65.6,55.2,30.11,NE,47,2.0,5.0,69,0.00,,---,0.00,VWS V14.01,2013-09-13 06:22:00,
2013-09-13 01:26:00,65.6,55.2,30.11,NE,44,3.0,5.0,69,0.00,,---,0.00,VWS V14.01,2013-09-13 06:26:00,
2013-09-13 01:27:00,65.6,55.2,30.11,NE,46,2.0,6.0,69,0.00,,---,0.00,VWS V14.01,2013-09-13 06:27:00,
2013-09-13 01:31:00,65.5,54.7,30.11,NE,36,4.0,4.0,68,0.00,,---,0.00,VWS V14.01,2013-09-13 06:31:00,
2013-09-13 01:32:00,65.5,54.7,30.11,NE,46,5.0,6.0,68,0.00,,---,0.00,VWS V14.01,2013-09-13 06:32:00,
2013-09-13 01:33:00,65.5,54.7,30.11,NE,46,6.0,6.0,68,0.00,,---,0.00,VWS V14.01,2013-09-13 06:33:00,
2013-09-13 01:36:00,65.5,54.3,30.11,NE,44,5.0,7.0,67,0.00,,---,0.00,VWS V14.01,2013-09-13 06:36:00,
2013-09-13 01:37:00,65.6,54.8,30.11,NE,45,6.0,7.0,68,0.00,,---,0.00,VWS V14.01,2013-09-13 06:37:00,
2013-09-13 01:38:00,65.6,54.8,30.11,NE,44,4.0,7.0,68,0.00,,---,0.00,VWS V14.01,2013-09-13 06:38:00,
2013-09-13 01:41:00,65.6,54.4,30.11,NE,49,6.0,9.0,67,0.00,,---,0.00,VWS V14.01,2013-09-13 06:41:00,
2013-09-13 01:42:00,65.6,54.4,30.11,NE,44,5.0,9.0,67,0.00,,---,0.00,VWS V14.01,2013-09-13 06:42:00,
2013-09-13 01:43:00,65.6,54.4,30.11,NE,48,5.0,9.0,67,0.00,,---,0.00,VWS V14.01,2013-09-13 06:43:00,
2013-09-13 01:44:00,65.6,54.4,30.11,NE,46,5.0,9.0,67,0.00,,---,0.00,VWS V14.01,2013-09-13 06:44:00,
2013-09-13 01:46:00,65.6,54.4,30.11,NE,46,6.0,9.0,67,0.00,,---,0.00,VWS V14.01,2013-09-13 06:46:00,
2013-09-13 01:47:00,65.6,54.0,30.11,NE,44,4.0,9.0,66,0.00,,---,0.00,VWS V14.01,2013-09-13 06:47:00,
2013-09-13 01:48:00,65.6,54.4,30.11,NE,42,4.0,9.0,67,0.00,,---,0.00,VWS V14.01,2013-09-13 06:48:00,
2013-09-13 01:49:00,65.6,54.4,30.11,NE,42,4.0,9.0,67,0.00,,---,0.00,VWS V14.01,2013-09-13 06:49:00,
2013-09-13 01:51:00,65.6,54.4,30.11,NE,45,3.0,6.0,67,0.00,,---,0.00,VWS V14.01,2013-09-13 06:51:00,
2013-09-13 01:52:00,65.5,54.3,30.11,NE,45,5.0,6.0,67,0.00,,---,0.00,VWS V14.01,2013-09-13 06:52:00,
2013-09-13 01:53:00,65.5,54.3,30.11,NE,44,3.0,6.0,67,0.00,,---,0.00,VWS V14.01,2013-09-13 06:53:00,
2013-09-13 01:54:00,65.5,54.3,30.11,NE,44,5.0,6.0,67,0.00,,---,0.00,VWS V14.01,2013-09-13 06:54:00,
2013-09-13 01:56:00,65.5,54.3,30.11,NE,45,4.0,6.0,67,0.00,,---,0.00,VWS V14.01,2013-09-13 06:56:00,
2013-09-13 01:57:00,65.5,54.3,30.11,NE,45,4.0,6.0,67,0.00,,---,0.00,VWS V14.01,2013-09-13 06:57:00,
2013-09-13 01:58:00,65.3,54.1,30.11,NE,44,5.0,6.0,67,0.00,,---,0.00,VWS V14.01,2013-09-13 06:58:00,
2013-09-13 01:59:00,65.3,54.1,30.11,NE,44,4.0,6.0,67,0.00,,---,0.00,VWS V14.01,2013-09-13 06:59:00,
2013-09-13 02:01:00,65.3,54.5,30.11,NE,47,5.0,5.0,68,0.00,,---,0.00,VWS V14.01,2013-09-13 07:01:00,
2013-09-13 02:02:00,65.3,54.5,30.11,NE,47,4.0,6.0,68,0.00,,---,0.00,VWS V14.01,2013-09-13 07:02:00,
2013-09-13 02:03:00,65.3,54.1,30.11,NE,42,4.0,6.0,67,0.00,,---,0.00,VWS V14.01,2013-09-13 07:03:00,
2013-09-13 02:04:00,65.3,54.1,30.11,NE,51,5.0,6.0,67,0.00,,---,0.00,VWS V14.01,2013-09-13 07:04:00,
2013-09-13 02:06:00,65.3,54.5,30.11,NE,42,5.0,7.0,68,0.00,,---,0.00,VWS V14.01,2013-09-13 07:06:00,
2013-09-13 02:07:00,65.3,54.5,30.11,NE,44,6.0,7.0,68,0.00,,---,0.00,VWS V14.01,2013-09-13 07:07:00,
2013-09-13 02:08:00,65.2,54.0,30.11,NE,47,6.0,7.0,67,0.00,,---,0.00,VWS V14.01,2013-09-13 07:08:00,
2013-09-13 02:09:00,65.2,54.0,30.11,NE,44,6.0,7.0,67,0.00,,---,0.00,VWS V14.01,2013-09-13 07:09:00,
2013-09-13 02:11:00,65.2,54.4,30.11,NE,44,6.0,8.0,68,0.00,,---,0.00,VWS V14.01,2013-09-13 07:11:00,
2013-09-13 02:12:00,65.2,54.4,30.11,NE,48,6.0,8.0,68,0.00,,---,0.00,VWS V14.01,2013-09-13 07:12:00,
2013-09-13 02:14:00,65.2,54.4,30.11,NE,48,6.0,8.0,68,0.00,,---,0.00,VWS V14.01,2013-09-13 07:14:00,
2013-09-13 02:16:00,65.0,54.2,30.11,NE,43,5.0,8.0,68,0.00,,---,0.00,VWS V14.01,2013-09-13 07:16:00,
2013-09-13 02:17:00,65.0,54.2,30.11,NE,42,5.0,8.0,68,0.00,,---,0.00,VWS V14.01,2013-09-13 07:17:00,
2013-09-13 02:19:00,65.0,54.2,30.11,NE,38,6.0,8.0,68,0.00,,---,0.00,VWS V14.01,2013-09-13 07:19:00,
2013-09-13 02:21:00,65.0,54.6,30.11,NE,40,2.0,4.0,69,0.00,,---,0.00,VWS V14.01,2013-09-13 07:21:00,
2013-09-13 02:22:00,65.0,54.6,30.11,NE,40,1.0,4.0,69,0.00,,---,0.00,VWS V14.01,2013-09-13 07:22:00,
2013-09-13 02:23:00,65.0,54.6,30.11,NE,40,0.0,4.0,69,0.00,,---,0.00,VWS V14.01,2013-09-13 07:23:00,
2013-09-13 02:24:00,65.0,54.2,30.11,NE,40,0.0,4.0,68,0.00,,---,0.00,VWS V14.01,2013-09-13 07:24:00,
2013-09-13 02:26:00,65.0,54.2,30.11,NE,40,0.0,4.0,68,0.00,,---,0.00,VWS V14.01,2013-09-13 07:26:00,
2013-09-13 02:27:00,65.0,54.2,30.11,NE,40,0.0,4.0,68,0.00,,---,0.00,VWS V14.01,2013-09-13 07:27:00,
2013-09-13 02:28:00,65.0,54.2,30.11,NE,41,0.0,4.0,68,0.00,,---,0.00,VWS V14.01,2013-09-13 07:28:00,
2013-09-13 02:29:00,65.0,54.2,30.11,NE,41,0.0,4.0,68,0.00,,---,0.00,VWS V14.01,2013-09-13 07:29:00,
2013-09-13 02:31:00,65.0,54.2,30.12,NE,41,0.0,0.0,68,0.00,,---,0.00,VWS V14.01,2013-09-13 07:31:00,
2013-09-13 02:32:00,65.0,54.2,30.12,NE,41,0.0,0.0,68,0.00,,---,0.00,VWS V14.01,2013-09-13 07:32:00,
2013-09-13 02:33:00,65.0,54.2,30.12,NE,41,0.0,0.0,68,0.00,,---,0.00,VWS V14.01,2013-09-13 07:33:00,
2013-09-13 02:34:00,65.0,54.2,30.12,NE,41,0.0,0.0,68,0.00,,---,0.00,VWS V14.01,2013-09-13 07:34:00,
2013-09-13 02:36:00,65.0,54.2,30.12,NE,41,0.0,0.0,68,0.00,,---,0.00,VWS V14.01,2013-09-13 07:36:00,
2013-09-13 02:37:00,65.0,54.2,30.12,NE,41,0.0,0.0,68,0.00,,---,0.00,VWS V14.01,2013-09-13 07:37:00,
2013-09-13 02:38:00,65.2,54.0,30.12,NE,41,0.0,0.0,67,0.00,,---,0.00,VWS V14.01,2013-09-13 07:38:00,
2013-09-13 02:40:00,65.2,54.0,30.12,NE,43,0.0,0.0,67,0.00,,---,0.00,VWS V14.01,2013-09-13 07:40:00,
2013-09-13 02:41:00,65.2,54.0,30.12,NE,43,0.0,0.0,67,0.00,,---,0.00,VWS V14.01,2013-09-13 07:41:00,
2013-09-13 02:42:00,65.2,54.0,30.12,NE,40,0.0,0.0,67,0.00,,---,0.00,VWS V14.01,2013-09-13 07:42:00,
2013-09-13 02:43:00,65.2,54.0,30.12,NE,41,0.0,0.0,67,0.00,,---,0.00,VWS V14.01,2013-09-13 07:43:00,
2013-09-13 02:45:00,65.2,53.6,30.12,NE,37,0.0,0.0,66,0.00,,---,0.00,VWS V14.01,2013-09-13 07:45:00,
2013-09-13 02:46:00,65.2,53.6,30.12,NE,37,0.0,0.0,66,0.00,,---,0.00,VWS V14.01,2013-09-13 07:46:00,
2013-09-13 02:47:00,65.2,53.6,30.12,NE,42,0.0,0.0,66,0.00,,---,0.00,VWS V14.01,2013-09-13 07:47:00,
2013-09-13 02:48:00,65.2,53.6,30.12,NE,42,0.0,0.0,66,0.00,,---,0.00,VWS V14.01,2013-09-13 07:48:00,
2013-09-13 02:50:00,65.2,53.6,30.12,NE,40,0.0,5.0,66,0.00,,---,0.00,VWS V14.01,2013-09-13 07:50:00,
2013-09-13 02:51:00,65.2,53.6,30.12,NE,40,0.0,0.0,66,0.00,,---,0.00,VWS V14.01,2013-09-13 07:51:00,
2013-09-13 02:52:00,65.2,54.0,30.12,NE,40,0.0,0.0,67,0.00,,---,0.00,VWS V14.01,2013-09-13 07:52:00,
2013-09-13 02:53:00,65.2,54.0,30.12,NE,40,0.0,0.0,67,0.00,,---,0.00,VWS V14.01,2013-09-13 07:53:00,
2013-09-13 02:55:00,65.2,53.6,30.12,NE,45,2.0,5.0,66,0.00,,---,0.00,VWS V14.01,2013-09-13 07:55:00,
2013-09-13 02:56:00,65.2,54.0,30.12,NE,46,4.0,5.0,67,0.00,,---,0.00,VWS V14.01,2013-09-13 07:56:00,
2013-09-13 02:57:00,65.2,53.6,30.12,NE,46,2.0,5.0,66,0.00,,---,0.00,VWS V14.01,2013-09-13 07:57:00,
2013-09-13 02:58:00,65.2,54.0,30.12,NE,46,3.0,5.0,67,0.00,,---,0.00,VWS V14.01,2013-09-13 07:58:00,
2013-09-13 02:59:00,65.0,53.8,30.12,NE,46,0.0,5.0,67,0.00,,---,0.00,VWS V14.01,2013-09-13 07:59:00,
2013-09-13 03:01:00,65.0,54.2,30.12,NE,46,0.0,0.0,68,0.00,,---,0.00,VWS V14.01,2013-09-13 08:01:00,
2013-09-13 03:03:00,65.0,53.8,30.12,NE,46,0.0,0.0,67,0.00,,---,0.00,VWS V14.01,2013-09-13 08:03:00,
2013-09-13 03:04:00,65.0,53.8,30.12,NE,46,0.0,0.0,67,0.00,,---,0.00,VWS V14.01,2013-09-13 08:04:00,
2013-09-13 03:06:00,64.8,53.6,30.12,NE,46,0.0,0.0,67,0.00,,---,0.00,VWS V14.01,2013-09-13 08:06:00,
2013-09-13 03:08:00,64.8,53.6,30.12,NE,47,4.0,4.0,67,0.00,,---,0.00,VWS V14.01,2013-09-13 08:08:00,
2013-09-13 03:09:00,64.8,54.0,30.12,NE,47,5.0,5.0,68,0.00,,---,0.00,VWS V14.01,2013-09-13 08:09:00,
2013-09-13 03:11:00,64.8,54.0,30.12,NE,47,4.0,5.0,68,0.00,,---,0.00,VWS V14.01,2013-09-13 08:11:00,
2013-09-13 03:13:00,64.7,53.9,30.12,NE,47,4.0,5.0,68,0.00,,---,0.00,VWS V14.01,2013-09-13 08:13:00,
2013-09-13 03:14:00,64.7,54.3,30.12,NE,47,4.0,5.0,69,0.00,,---,0.00,VWS V14.01,2013-09-13 08:14:00,
2013-09-13 03:16:00,64.7,54.3,30.12,NE,47,5.0,6.0,69,0.00,,---,0.00,VWS V14.01,2013-09-13 08:16:00,
2013-09-13 03:18:00,64.5,53.7,30.12,NE,47,5.0,6.0,68,0.00,,---,0.00,VWS V14.01,2013-09-13 08:18:00,
2013-09-13 03:19:00,64.5,53.7,30.12,NE,48,5.0,6.0,68,0.00,,---,0.00,VWS V14.01,2013-09-13 08:19:00,
2013-09-13 03:21:00,64.5,53.7,30.12,NE,48,4.0,6.0,68,0.00,,---,0.00,VWS V14.01,2013-09-13 08:21:00,
2013-09-13 03:23:00,64.5,54.1,30.12,NE,48,4.0,6.0,69,0.00,,---,0.00,VWS V14.01,2013-09-13 08:23:00,
2013-09-13 03:24:00,64.3,53.9,30.12,NE,49,5.0,6.0,69,0.00,,---,0.00,VWS V14.01,2013-09-13 08:24:00,
2013-09-13 03:26:00,64.3,53.9,30.12,NE,49,4.0,6.0,69,0.00,,---,0.00,VWS V14.01,2013-09-13 08:26:00,
2013-09-13 03:27:00,64.3,53.9,30.12,NE,49,5.0,6.0,69,0.00,,---,0.00,VWS V14.01,2013-09-13 08:27:00,
2013-09-13 03:28:00,64.3,53.9,30.12,NE,49,3.0,6.0,69,0.00,,---,0.00,VWS V14.01,2013-09-13 08:28:00,
2013-09-13 03:29:00,64.3,53.9,30.12,NE,49,4.0,6.0,69,0.00,,---,0.00,VWS V14.01,2013-09-13 08:29:00,
2013-09-13 03:31:00,64.2,53.8,30.12,NE,49,0.0,4.0,69,0.00,,---,0.00,VWS V14.01,2013-09-13 08:31:00,
2013-09-13 03:32:00,64.2,53.8,30.12,NE,49,0.0,4.0,69,0.00,,---,0.00,VWS V14.01,2013-09-13 08:32:00,
2013-09-13 03:33:00,64.2,53.8,30.12,NE,49,0.0,4.0,69,0.00,,---,0.00,VWS V14.01,2013-09-13 08:33:00,
2013-09-13 03:34:00,64.2,53.8,30.12,NE,49,0.0,4.0,69,0.00,,---,0.00,VWS V14.01,2013-09-13 08:34:00,
2013-09-13 03:35:00,64.2,53.8,30.12,NE,49,0.0,4.0,69,0.00,,---,0.00,VWS V14.01,2013-09-13 08:35:00,
2013-09-13 03:37:00,64.2,53.4,30.12,NE,49,0.0,4.0,68,0.00,,---,0.00,VWS V14.01,2013-09-13 08:37:00,
2013-09-13 03:38:00,64.2,53.8,30.12,NE,49,0.0,4.0,69,0.00,,---,0.00,VWS V14.01,2013-09-13 08:38:00,
2013-09-13 03:39:00,64.2,53.8,30.12,NE,49,0.0,4.0,69,0.00,,---,0.00,VWS V14.01,2013-09-13 08:39:00,
2013-09-13 03:40:00,64.2,53.8,30.12,NE,49,0.0,4.0,69,0.00,,---,0.00,VWS V14.01,2013-09-13 08:40:00,
2013-09-13 03:42:00,64.2,53.8,30.12,NE,49,0.0,0.0,69,0.00,,---,0.00,VWS V14.01,2013-09-13 08:42:00,
2013-09-13 03:43:00,64.2,53.4,30.12,NE,49,0.0,0.0,68,0.00,,---,0.00,VWS V14.01,2013-09-13 08:43:00,
2013-09-13 03:44:00,64.2,53.4,30.12,NE,49,0.0,0.0,68,0.00,,---,0.00,VWS V14.01,2013-09-13 08:44:00,
2013-09-13 03:45:00,64.2,53.4,30.12,NE,49,0.0,0.0,68,0.00,,---,0.00,VWS V14.01,2013-09-13 08:45:00,
2013-09-13 03:47:00,64.2,53.4,30.12,NE,49,0.0,0.0,68,0.00,,---,0.00,VWS V14.01,2013-09-13 08:47:00,
2013-09-13 03:48:00,64.2,53.4,30.12,NE,49,0.0,0.0,68,0.00,,---,0.00,VWS V14.01,2013-09-13 08:48:00,
2013-09-13 03:49:00,64.2,53.4,30.12,NE,49,0.0,0.0,68,0.00,,---,0.00,VWS V14.01,2013-09-13 08:49:00,
2013-09-13 03:50:00,64.2,53.4,30.12,NE,49,0.0,0.0,68,0.00,,---,0.00,VWS V14.01,2013-09-13 08:50:00,
2013-09-13 03:51:00,64.2,53.4,30.12,NE,49,4.0,4.0,68,0.00,,---,0.00,VWS V14.01,2013-09-13 08:51:00,
2013-09-13 03:52:00,64.2,53.4,30.12,NE,49,4.0,5.0,68,0.00,,---,0.00,VWS V14.01,2013-09-13 08:52:00,
2013-09-13 03:53:00,64.2,53.4,30.12,NE,49,5.0,5.0,68,0.00,,---,0.00,VWS V14.01,2013-09-13 08:53:00,
2013-09-13 03:54:00,64.2,53.4,30.12,NE,49,4.0,5.0,68,0.00,,---,0.00,VWS V14.01,2013-09-13 08:54:00,
2013-09-13 03:55:00,64.2,53.4,30.12,NE,49,4.0,5.0,68,0.00,,---,0.00,VWS V14.01,2013-09-13 08:55:00,
2013-09-13 03:56:00,64.0,53.2,30.12,NE,49,4.0,5.0,68,0.00,,---,0.00,VWS V14.01,2013-09-13 08:56:00,
2013-09-13 03:57:00,64.0,53.2,30.12,NE,49,4.0,5.0,68,0.00,,---,0.00,VWS V14.01,2013-09-13 08:57:00,
2013-09-13 03:58:00,64.0,53.2,30.12,NE,49,4.0,5.0,68,0.00,,---,0.00,VWS V14.01,2013-09-13 08:58:00,
2013-09-13 03:59:00,64.0,53.2,30.12,NE,49,3.0,5.0,68,0.00,,---,0.00,VWS V14.01,2013-09-13 08:59:00,
2013-09-13 04:00:00,64.0,53.2,30.12,NE,49,3.0,5.0,68,0.00,,---,0.00,VWS V14.01,2013-09-13 09:00:00,
2013-09-13 04:01:00,64.0,53.6,30.12,NE,49,4.0,4.0,69,0.00,,---,0.00,VWS V14.01,2013-09-13 09:01:00,
2013-09-13 04:02:00,64.0,53.6,30.12,NE,49,4.0,4.0,69,0.00,,---,0.00,VWS V14.01,2013-09-13 09:02:00,
2013-09-13 04:03:00,63.9,53.5,30.12,NE,49,4.0,4.0,69,0.00,,---,0.00,VWS V14.01,2013-09-13 09:03:00,
2013-09-13 04:04:00,63.9,53.5,30.12,NE,49,3.0,4.0,69,0.00,,---,0.00,VWS V14.01,2013-09-13 09:04:00,
2013-09-13 04:05:00,63.9,53.5,30.12,NE,49,4.0,4.0,69,0.00,,---,0.00,VWS V14.01,2013-09-13 09:05:00,
2013-09-13 04:07:00,63.9,53.5,30.12,NE,49,3.0,4.0,69,0.00,,---,0.00,VWS V14.01,2013-09-13 09:07:00,
2013-09-13 04:08:00,63.7,53.3,30.12,NE,49,4.0,4.0,69,0.00,,---,0.00,VWS V14.01,2013-09-13 09:08:00,
2013-09-13 04:10:00,63.7,53.3,30.12,NE,49,4.0,4.0,69,0.00,,---,0.00,VWS V14.01,2013-09-13 09:10:00,
2013-09-13 04:12:00,63.7,53.7,30.12,NE,49,3.0,4.0,70,0.00,,---,0.00,VWS V14.01,2013-09-13 09:12:00,
2013-09-13 04:13:00,63.7,53.7,30.12,NE,49,4.0,4.0,70,0.00,,---,0.00,VWS V14.01,2013-09-13 09:13:00,
2013-09-13 04:15:00,63.5,53.5,30.12,NE,49,3.0,4.0,70,0.00,,---,0.00,VWS V14.01,2013-09-13 09:15:00,
2013-09-13 04:16:00,63.5,53.5,30.12,NE,49,4.0,4.0,70,0.00,,---,0.00,VWS V14.01,2013-09-13 09:16:00,
2013-09-13 04:17:00,63.5,53.5,30.12,NE,49,3.0,4.0,70,0.00,,---,0.00,VWS V14.01,2013-09-13 09:17:00,
2013-09-13 04:18:00,63.5,53.5,30.12,NE,49,0.0,4.0,70,0.00,,---,0.00,VWS V14.01,2013-09-13 09:18:00,
2013-09-13 04:19:00,63.5,53.5,30.12,NE,49,0.0,4.0,70,0.00,,---,0.00,VWS V14.01,2013-09-13 09:19:00,
2013-09-13 04:20:00,63.4,53.8,30.12,NE,49,0.0,4.0,71,0.00,,---,0.00,VWS V14.01,2013-09-13 09:20:00,
2013-09-13 04:21:00,63.4,53.8,30.12,NE,49,0.0,0.0,71,0.00,,---,0.00,VWS V14.01,2013-09-13 09:21:00,
2013-09-13 04:22:00,63.4,53.8,30.12,NE,49,0.0,0.0,71,0.00,,---,0.00,VWS V14.01,2013-09-13 09:22:00,
2013-09-13 04:23:00,63.4,53.8,30.12,NE,49,0.0,0.0,71,0.00,,---,0.00,VWS V14.01,2013-09-13 09:23:00,
2013-09-13 04:24:00,63.2,53.7,30.12,NE,49,0.0,0.0,71,0.00,,---,0.00,VWS V14.01,2013-09-13 09:24:00,
2013-09-13 04:25:00,63.2,53.7,30.12,NE,49,0.0,0.0,71,0.00,,---,0.00,VWS V14.01,2013-09-13 09:25:00,
2013-09-13 04:26:00,63.2,53.7,30.12,NE,49,0.0,0.0,71,0.00,,---,0.00,VWS V14.01,2013-09-13 09:26:00,
2013-09-13 04:27:00,63.2,53.7,30.12,NE,49,0.0,0.0,71,0.00,,---,0.00,VWS V14.01,2013-09-13 09:27:00,
2013-09-13 04:28:00,63.2,53.7,30.12,NE,49,0.0,0.0,71,0.00,,---,0.00,VWS V14.01,2013-09-13 09:28:00,
2013-09-13 04:29:00,63.2,53.7,30.12,NE,49,0.0,0.0,71,0.00,,---,0.00,VWS V14.01,2013-09-13 09:29:00,
2013-09-13 04:30:00,63.2,53.7,30.12,NE,49,0.0,0.0,71,0.00,,---,0.00,VWS V14.01,2013-09-13 09:30:00,
2013-09-13 04:32:00,63.1,53.6,30.12,NE,49,0.0,0.0,71,0.00,,---,0.00,VWS V14.01,2013-09-13 09:32:00,
2013-09-13 04:33:00,63.1,53.6,30.12,NE,49,0.0,0.0,71,0.00,,---,0.00,VWS V14.01,2013-09-13 09:33:00,
2013-09-13 04:35:00,63.2,53.7,30.12,NE,49,0.0,0.0,71,0.00,,---,0.00,VWS V14.01,2013-09-13 09:35:00,
2013-09-13 04:37:00,63.2,53.7,30.12,NE,49,0.0,0.0,71,0.00,,---,0.00,VWS V14.01,2013-09-13 09:37:00,
2013-09-13 04:38:00,63.2,53.7,30.12,NE,49,0.0,0.0,71,0.00,,---,0.00,VWS V14.01,2013-09-13 09:38:00,
2013-09-13 04:40:00,63.2,53.7,30.12,NE,50,0.0,0.0,71,0.00,,---,0.00,VWS V14.01,2013-09-13 09:40:00,
2013-09-13 04:42:00,63.2,54.0,30.12,NE,50,0.0,0.0,72,0.00,,---,0.00,VWS V14.01,2013-09-13 09:42:00,
2013-09-13 04:43:00,63.2,54.0,30.12,NE,49,0.0,0.0,72,0.00,,---,0.00,VWS V14.01,2013-09-13 09:43:00,
2013-09-13 04:45:00,63.2,53.7,30.12,NE,46,0.0,5.0,71,0.00,,---,0.00,VWS V14.01,2013-09-13 09:45:00,
2013-09-13 04:47:00,63.1,53.6,30.12,NE,39,0.0,5.0,71,0.00,,---,0.00,VWS V14.01,2013-09-13 09:47:00,
2013-09-13 04:48:00,63.1,53.6,30.12,NE,44,0.0,7.0,71,0.00,,---,0.00,VWS V14.01,2013-09-13 09:48:00,
2013-09-13 04:50:00,63.1,53.6,30.12,NE,44,0.0,7.0,71,0.00,,---,0.00,VWS V14.01,2013-09-13 09:50:00,
2013-09-13 04:51:00,63.1,53.6,30.12,NE,44,0.0,0.0,71,0.00,,---,0.00,VWS V14.01,2013-09-13 09:51:00,
2013-09-13 04:52:00,63.1,53.6,30.12,NE,44,0.0,0.0,71,0.00,,---,0.00,VWS V14.01,2013-09-13 09:52:00,
2013-09-13 04:53:00,63.1,53.6,30.12,NE,44,0.0,0.0,71,0.00,,---,0.00,VWS V14.01,2013-09-13 09:53:00,
2013-09-13 04:55:00,63.1,53.6,30.12,NE,45,0.0,0.0,71,0.00,,---,0.00,VWS V14.01,2013-09-13 09:55:00,
2013-09-13 04:57:00,63.1,53.9,30.12,NE,45,0.0,0.0,72,0.00,,---,0.00,VWS V14.01,2013-09-13 09:57:00,
2013-09-13 04:58:00,63.1,53.9,30.12,NE,45,0.0,0.0,72,0.00,,---,0.00,VWS V14.01,2013-09-13 09:58:00,
2013-09-13 05:00:00,63.1,53.9,30.12,NE,45,0.0,0.0,72,0.00,,---,0.00,VWS V14.01,2013-09-13 10:00:00,
2013-09-13 05:02:00,63.1,53.9,30.12,NE,46,0.0,0.0,72,0.00,,---,0.00,VWS V14.01,2013-09-13 10:02:00,
2013-09-13 05:03:00,62.9,53.8,30.12,NE,46,0.0,0.0,72,0.00,,---,0.00,VWS V14.01,2013-09-13 10:03:00,
2013-09-13 05:05:00,62.9,53.4,30.12,NE,46,0.0,0.0,71,0.00,,---,0.00,VWS V14.01,2013-09-13 10:05:00,
2013-09-13 05:07:00,62.9,53.4,30.12,NE,41,0.0,6.0,71,0.00,,---,0.00,VWS V14.01,2013-09-13 10:07:00,
2013-09-13 05:08:00,62.9,53.4,30.12,NE,42,0.0,6.0,71,0.00,,---,0.00,VWS V14.01,2013-09-13 10:08:00,
2013-09-13 05:10:00,62.9,53.4,30.12,NE,42,0.0,6.0,71,0.00,,---,0.00,VWS V14.01,2013-09-13 10:10:00,
2013-09-13 05:12:00,62.9,53.8,30.12,NE,42,0.0,0.0,72,0.00,,---,0.00,VWS V14.01,2013-09-13 10:12:00,
2013-09-13 05:13:00,62.9,53.4,30.12,NE,45,0.0,5.0,71,0.00,,---,0.00,VWS V14.01,2013-09-13 10:13:00,
2013-09-13 05:14:00,62.9,53.4,30.12,NE,45,0.0,5.0,71,0.00,,---,0.00,VWS V14.01,2013-09-13 10:14:00,
2013-09-13 05:15:00,62.9,53.8,30.12,NE,46,4.0,6.0,72,0.00,,---,0.00,VWS V14.01,2013-09-13 10:15:00,
2013-09-13 05:17:00,62.7,53.5,30.12,NE,46,6.0,6.0,72,0.00,,---,0.00,VWS V14.01,2013-09-13 10:17:00,
2013-09-13 05:19:00,62.7,53.5,30.12,NE,42,5.0,6.0,72,0.00,,---,0.00,VWS V14.01,2013-09-13 10:19:00,
2013-09-13 05:20:00,62.7,53.5,30.12,NE,42,4.0,6.0,72,0.00,,---,0.00,VWS V14.01,2013-09-13 10:20:00,
2013-09-13 05:22:00,62.7,53.5,30.12,NE,39,5.0,6.0,72,0.00,,---,0.00,VWS V14.01,2013-09-13 10:22:00,
2013-09-13 05:24:00,62.6,53.5,30.12,NE,44,4.0,6.0,72,0.00,,---,0.00,VWS V14.01,2013-09-13 10:24:00,
2013-09-13 05:25:00,62.6,53.5,30.12,NE,44,4.0,6.0,72,0.00,,---,0.00,VWS V14.01,2013-09-13 10:25:00,
2013-09-13 05:26:00,62.6,53.8,30.12,NE,44,6.0,6.0,73,0.00,,---,0.00,VWS V14.01,2013-09-13 10:26:00,
2013-09-13 05:27:00,62.6,53.8,30.12,NE,49,4.0,6.0,73,0.00,,---,0.00,VWS V14.01,2013-09-13 10:27:00,
2013-09-13 05:29:00,62.6,53.8,30.12,NE,49,5.0,6.0,73,0.00,,---,0.00,VWS V14.01,2013-09-13 10:29:00,
2013-09-13 05:30:00,62.6,53.8,30.12,NE,49,4.0,6.0,73,0.00,,---,0.00,VWS V14.01,2013-09-13 10:30:00,
2013-09-13 05:32:00,62.4,53.6,30.12,NE,49,0.0,5.0,73,0.00,,---,0.00,VWS V14.01,2013-09-13 10:32:00,
2013-09-13 05:34:00,62.4,53.6,30.12,NE,49,0.0,5.0,73,0.00,,---,0.00,VWS V14.01,2013-09-13 10:34:00,
2013-09-13 05:35:00,62.4,53.6,30.12,NE,49,0.0,5.0,73,0.00,,---,0.00,VWS V14.01,2013-09-13 10:35:00,
2013-09-13 05:36:00,62.4,53.6,30.12,NE,49,0.0,5.0,73,0.00,,---,0.00,VWS V14.01,2013-09-13 10:36:00,
2013-09-13 05:37:00,62.4,53.6,30.12,NE,48,2.0,5.0,73,0.00,,---,0.00,VWS V14.01,2013-09-13 10:37:00,
2013-09-13 05:39:00,62.4,53.6,30.12,NE,49,0.0,5.0,73,0.00,,---,0.00,VWS V14.01,2013-09-13 10:39:00,
2013-09-13 05:40:00,62.4,53.6,30.12,NE,47,3.0,6.0,73,0.00,,---,0.00,VWS V14.01,2013-09-13 10:40:00,
2013-09-13 05:41:00,62.4,53.6,30.12,NE,48,4.0,4.0,73,0.00,,---,0.00,VWS V14.01,2013-09-13 10:41:00,
2013-09-13 05:42:00,62.4,53.6,30.12,NE,48,0.0,4.0,73,0.00,,---,0.00,VWS V14.01,2013-09-13 10:42:00,
2013-09-13 05:43:00,62.4,53.6,30.12,NE,48,0.0,4.0,73,0.00,,---,0.00,VWS V14.01,2013-09-13 10:43:00,
2013-09-13 05:44:00,62.4,53.6,30.12,NE,48,0.0,4.0,73,0.00,,---,0.00,VWS V14.01,2013-09-13 10:44:00,
2013-09-13 05:45:00,62.4,53.6,30.12,NE,48,0.0,4.0,73,0.00,,---,0.00,VWS V14.01,2013-09-13 10:45:00,
2013-09-13 05:46:00,62.4,53.6,30.12,NE,48,5.0,5.0,73,0.00,,---,0.00,VWS V14.01,2013-09-13 10:46:00,
2013-09-13 05:48:00,62.4,53.6,30.12,NE,48,0.0,5.0,73,0.00,,---,0.00,VWS V14.01,2013-09-13 10:48:00,
2013-09-13 05:49:00,62.4,53.6,30.12,NE,49,0.0,5.0,73,0.00,,---,0.00,VWS V14.01,2013-09-13 10:49:00,
2013-09-13 05:50:00,62.4,53.3,30.12,NE,49,4.0,5.0,72,0.00,,---,0.00,VWS V14.01,2013-09-13 10:50:00,
2013-09-13 05:51:00,62.4,53.3,30.12,NE,49,4.0,5.0,72,0.00,,---,0.00,VWS V14.01,2013-09-13 10:51:00,
2013-09-13 05:53:00,62.4,53.3,30.12,NE,49,3.0,5.0,72,0.00,,---,0.00,VWS V14.01,2013-09-13 10:53:00,
2013-09-13 05:54:00,62.4,53.6,30.12,NE,49,3.0,5.0,73,0.00,,---,0.00,VWS V14.01,2013-09-13 10:54:00,
2013-09-13 05:55:00,62.4,53.6,30.12,NE,49,0.0,5.0,73,0.00,,---,0.00,VWS V14.01,2013-09-13 10:55:00,
2013-09-13 05:56:00,62.4,53.6,30.12,NE,49,0.0,5.0,73,0.00,,---,0.00,VWS V14.01,2013-09-13 10:56:00,
2013-09-13 05:58:00,62.4,53.6,30.12,NE,49,0.0,5.0,73,0.00,,---,0.00,VWS V14.01,2013-09-13 10:58:00,
2013-09-13 05:59:00,62.4,53.6,30.12,NE,49,5.0,5.0,73,0.00,,---,0.00,VWS V14.01,2013-09-13 10:59:00,
2013-09-13 06:00:00,62.4,53.6,30.13,NE,49,6.0,6.0,73,0.00,,---,0.00,VWS V14.01,2013-09-13 11:00:00,
2013-09-13 06:01:00,62.4,53.3,30.13,NE,49,5.0,5.0,72,0.00,,---,0.00,VWS V14.01,2013-09-13 11:01:00,
2013-09-13 06:03:00,62.4,53.3,30.13,NE,47,3.0,7.0,72,0.00,,---,0.00,VWS V14.01,2013-09-13 11:03:00,
2013-09-13 06:04:00,62.4,53.3,30.13,NE,46,6.0,7.0,72,0.00,,---,0.00,VWS V14.01,2013-09-13 11:04:00,
2013-09-13 06:05:00,62.4,53.3,30.13,NE,55,7.0,7.0,72,0.00,,---,0.00,VWS V14.01,2013-09-13 11:05:00,
2013-09-13 06:06:00,62.4,52.9,30.13,NE,55,2.0,7.0,71,0.00,,---,0.00,VWS V14.01,2013-09-13 11:06:00,
2013-09-13 06:08:00,62.4,53.3,30.13,NE,54,5.0,7.0,72,0.00,,---,0.00,VWS V14.01,2013-09-13 11:08:00,
2013-09-13 06:09:00,62.4,52.9,30.13,NE,53,5.0,8.0,71,0.00,,---,0.00,VWS V14.01,2013-09-13 11:09:00,
2013-09-13 06:10:00,62.4,52.9,30.13,ENE,63,6.0,8.0,71,0.00,,---,0.00,VWS V14.01,2013-09-13 11:10:00,
2013-09-13 06:11:00,62.4,52.9,30.13,ENE,63,5.0,5.0,71,0.00,,---,0.00,VWS V14.01,2013-09-13 11:11:00,
2013-09-13 06:13:00,62.4,52.5,30.13,NE,40,5.0,10.0,70,0.00,,---,0.00,VWS V14.01,2013-09-13 11:13:00,
2013-09-13 06:14:00,62.4,52.5,30.13,NE,46,8.0,10.0,70,0.00,,---,0.00,VWS V14.01,2013-09-13 11:14:00,
2013-09-13 06:15:00,62.4,52.5,30.13,NE,46,7.0,10.0,70,0.00,,---,0.00,VWS V14.01,2013-09-13 11:15:00,
2013-09-13 06:16:00,62.4,52.5,30.13,NE,46,9.0,10.0,70,0.00,,---,0.00,VWS V14.01,2013-09-13 11:16:00,
2013-09-13 06:18:00,62.4,52.5,30.13,NE,49,6.0,10.0,70,0.00,,---,0.00,VWS V14.01,2013-09-13 11:18:00,
2013-09-13 06:19:00,62.3,52.4,30.13,NE,51,6.0,10.0,70,0.00,,---,0.00,VWS V14.01,2013-09-13 11:19:00,
2013-09-13 06:20:00,62.3,52.8,30.13,NE,51,6.0,10.0,71,0.00,,---,0.00,VWS V14.01,2013-09-13 11:20:00,
2013-09-13 06:21:00,62.3,52.8,30.13,NE,51,6.0,7.0,71,0.00,,---,0.00,VWS V14.01,2013-09-13 11:21:00,
2013-09-13 06:23:00,62.3,52.8,30.13,NE,51,5.0,7.0,71,0.00,,---,0.00,VWS V14.01,2013-09-13 11:23:00,
2013-09-13 06:24:00,62.1,52.6,30.13,NE,51,6.0,7.0,71,0.00,,---,0.00,VWS V14.01,2013-09-13 11:24:00,
2013-09-13 06:25:00,62.1,52.6,30.13,NE,53,5.0,7.0,71,0.00,,---,0.00,VWS V14.01,2013-09-13 11:25:00,
2013-09-13 06:26:00,62.1,52.6,30.13,NE,53,5.0,7.0,71,0.00,,---,0.00,VWS V14.01,2013-09-13 11:26:00,
2013-09-13 06:28:00,62.1,52.6,30.13,NE,53,4.0,7.0,71,0.00,,---,0.00,VWS V14.01,2013-09-13 11:28:00,
2013-09-13 06:29:00,62.1,53.0,30.13,NE,54,5.0,7.0,72,0.00,,---,0.00,VWS V14.01,2013-09-13 11:29:00,
2013-09-13 06:31:00,62.1,53.0,30.13,NE,54,5.0,5.0,72,0.00,,---,0.00,VWS V14.01,2013-09-13 11:31:00,
2013-09-13 06:33:00,62.0,53.3,30.13,NE,54,5.0,6.0,73,0.00,,---,0.00,VWS V14.01,2013-09-13 11:33:00,
2013-09-13 06:34:00,62.0,53.3,30.13,NE,54,5.0,6.0,73,0.00,,---,0.00,VWS V14.01,2013-09-13 11:34:00,
2013-09-13 06:36:00,62.0,53.3,30.13,NE,53,7.0,7.0,73,0.00,,---,0.00,VWS V14.01,2013-09-13 11:36:00,
2013-09-13 06:38:00,62.0,53.3,30.13,NE,53,6.0,7.0,73,0.00,,---,0.00,VWS V14.01,2013-09-13 11:38:00,
2013-09-13 06:39:00,62.0,53.3,30.13,NE,52,6.0,7.0,73,0.00,,---,0.00,VWS V14.01,2013-09-13 11:39:00,
2013-09-13 06:41:00,62.0,52.9,30.13,NE,48,6.0,6.0,72,0.00,,---,0.00,VWS V14.01,2013-09-13 11:41:00,
2013-09-13 06:43:00,62.0,52.9,30.13,NE,49,6.0,7.0,72,0.00,,---,0.00,VWS V14.01,2013-09-13 11:43:00,
2013-09-13 06:44:00,62.0,52.9,30.13,NE,51,6.0,7.0,72,0.00,,---,0.00,VWS V14.01,2013-09-13 11:44:00,
2013-09-13 06:46:00,62.0,52.9,30.13,NE,52,6.0,8.0,72,0.00,,---,0.00,VWS V14.01,2013-09-13 11:46:00,
2013-09-13 06:47:00,62.0,52.9,30.13,NE,52,5.0,8.0,72,0.00,,---,0.00,VWS V14.01,2013-09-13 11:47:00,
2013-09-13 06:48:00,62.0,52.9,30.13,NE,52,5.0,8.0,72,0.00,,---,0.00,VWS V14.01,2013-09-13 11:48:00,
2013-09-13 06:49:00,62.0,53.3,30.13,NE,53,6.0,8.0,73,0.00,,---,0.00,VWS V14.01,2013-09-13 11:49:00,
2013-09-13 06:51:00,62.0,53.3,30.13,NE,42,5.0,7.0,73,0.00,,---,0.00,VWS V14.01,2013-09-13 11:51:00,
2013-09-13 06:52:00,61.8,53.1,30.13,NE,46,6.0,7.0,73,0.00,,---,0.00,VWS V14.01,2013-09-13 11:52:00,
2013-09-13 06:53:00,61.8,53.1,30.13,NE,46,5.0,7.0,73,0.00,,---,0.00,VWS V14.01,2013-09-13 11:53:00,
2013-09-13 06:54:00,61.8,53.1,30.13,NE,46,5.0,7.0,73,0.00,,---,0.00,VWS V14.01,2013-09-13 11:54:00,
2013-09-13 06:56:00,61.8,53.4,30.13,NE,50,8.0,8.0,74,0.00,,---,0.00,VWS V14.01,2013-09-13 11:56:00,
2013-09-13 06:57:00,61.6,52.9,30.13,NE,48,6.0,8.0,73,0.00,,---,0.00,VWS V14.01,2013-09-13 11:57:00,
2013-09-13 06:58:00,61.6,52.9,30.13,NE,47,6.0,8.0,73,0.00,,---,0.00,VWS V14.01,2013-09-13 11:58:00,
2013-09-13 06:59:00,61.6,53.2,30.13,NE,49,7.0,8.0,74,0.00,,---,0.00,VWS V14.01,2013-09-13 11:59:00,
2013-09-13 07:01:00,61.6,53.2,30.13,NE,44,5.0,6.0,74,0.00,,---,0.00,VWS V14.01,2013-09-13 12:01:00,
2013-09-13 07:02:00,61.5,53.2,30.13,NE,43,4.0,6.0,74,0.00,,---,0.00,VWS V14.01,2013-09-13 12:02:00,
2013-09-13 07:03:00,61.5,53.2,30.13,NE,44,6.0,6.0,74,0.00,,---,0.00,VWS V14.01,2013-09-13 12:03:00,
2013-09-13 07:04:00,61.5,53.2,30.13,NE,42,5.0,7.0,74,0.00,,---,0.00,VWS V14.01,2013-09-13 12:04:00,
2013-09-13 07:05:00,61.5,53.2,30.13,NE,42,6.0,7.0,74,0.00,,---,0.00,VWS V14.01,2013-09-13 12:05:00,
2013-09-13 07:06:00,61.3,53.0,30.13,NE,47,3.0,7.0,74,0.00,,---,0.00,VWS V14.01,2013-09-13 12:06:00,
2013-09-13 07:08:00,61.3,53.0,30.13,NE,47,6.0,7.0,74,0.00,,---,0.00,VWS V14.01,2013-09-13 12:08:00,
2013-09-13 07:09:00,61.3,53.0,30.13,NE,46,3.0,7.0,74,0.00,,---,0.00,VWS V14.01,2013-09-13 12:09:00,
2013-09-13 07:10:00,61.3,53.0,30.13,NE,46,3.0,7.0,74,0.00,,---,0.00,VWS V14.01,2013-09-13 12:10:00,
2013-09-13 07:12:00,61.2,52.9,30.13,NE,46,3.0,5.0,74,0.00,,---,0.00,VWS V14.01,2013-09-13 12:12:00,
2013-09-13 07:13:00,61.2,52.9,30.13,NE,46,3.0,5.0,74,0.00,,---,0.00,VWS V14.01,2013-09-13 12:13:00,
2013-09-13 07:14:00,61.2,52.9,30.13,NE,46,3.0,5.0,74,0.00,,---,0.00,VWS V14.01,2013-09-13 12:14:00,
2013-09-13 07:15:00,61.0,52.7,30.14,NE,46,0.0,5.0,74,0.00,,---,0.00,VWS V14.01,2013-09-13 12:15:00,
2013-09-13 07:17:00,61.0,53.0,30.14,NE,46,0.0,5.0,75,0.00,,---,0.00,VWS V14.01,2013-09-13 12:17:00,
2013-09-13 07:18:00,61.0,52.7,30.14,NE,46,0.0,5.0,74,0.00,,---,0.00,VWS V14.01,2013-09-13 12:18:00,
2013-09-13 07:20:00,61.0,52.7,30.14,NE,46,0.0,5.0,74,0.00,,---,0.00,VWS V14.01,2013-09-13 12:20:00,
2013-09-13 07:22:00,61.0,53.0,30.14,NE,46,0.0,0.0,75,0.00,,---,0.00,VWS V14.01,2013-09-13 12:22:00,
2013-09-13 07:23:00,61.0,53.0,30.14,NE,46,0.0,0.0,75,0.00,,---,0.00,VWS V14.01,2013-09-13 12:23:00,
2013-09-13 07:25:00,61.0,53.0,30.14,NE,46,0.0,0.0,75,0.00,,---,0.00,VWS V14.01,2013-09-13 12:25:00,
2013-09-13 07:27:00,60.9,52.9,30.14,NE,46,0.0,0.0,75,0.00,,---,0.00,VWS V14.01,2013-09-13 12:27:00,
2013-09-13 07:28:00,60.9,52.9,30.14,NE,46,0.0,0.0,75,0.00,,---,0.00,VWS V14.01,2013-09-13 12:28:00,
2013-09-13 07:29:00,61.0,53.0,30.14,NE,46,0.0,4.0,75,0.00,,---,0.00,VWS V14.01,2013-09-13 12:29:00,
2013-09-13 07:30:00,61.0,53.0,30.14,NE,46,0.0,4.0,75,0.00,,---,0.00,VWS V14.01,2013-09-13 12:30:00,
2013-09-13 07:32:00,60.9,52.9,30.14,NE,46,0.0,0.0,75,0.00,,---,0.00,VWS V14.01,2013-09-13 12:32:00,
2013-09-13 07:33:00,60.9,52.9,30.14,NE,46,0.0,0.0,75,0.00,,---,0.00,VWS V14.01,2013-09-13 12:33:00,
2013-09-13 07:34:00,60.9,52.9,30.14,NE,46,0.0,0.0,75,0.00,,---,0.00,VWS V14.01,2013-09-13 12:34:00,
2013-09-13 07:35:00,60.9,53.3,30.14,NE,46,0.0,0.0,76,0.00,,---,0.00,VWS V14.01,2013-09-13 12:35:00,
2013-09-13 07:37:00,60.9,53.3,30.14,NE,46,0.0,0.0,76,0.00,,---,0.00,VWS V14.01,2013-09-13 12:37:00,
2013-09-13 07:38:00,60.9,53.3,30.14,NE,46,0.0,0.0,76,0.00,,---,0.00,VWS V14.01,2013-09-13 12:38:00,
2013-09-13 07:39:00,60.9,53.3,30.14,NE,46,0.0,0.0,76,0.00,,---,0.00,VWS V14.01,2013-09-13 12:39:00,
2013-09-13 07:41:00,60.9,53.3,30.14,NE,46,0.0,0.0,76,0.00,,---,0.00,VWS V14.01,2013-09-13 12:41:00,
2013-09-13 07:42:00,60.9,53.3,30.14,NE,46,0.0,0.0,76,0.00,,---,0.00,VWS V14.01,2013-09-13 12:42:00,
2013-09-13 07:43:00,60.7,53.1,30.14,NE,46,0.0,0.0,76,0.00,,---,0.00,VWS V14.01,2013-09-13 12:43:00,
2013-09-13 07:45:00,60.7,53.1,30.14,NE,46,0.0,0.0,76,0.00,,---,0.00,VWS V14.01,2013-09-13 12:45:00,
2013-09-13 07:46:00,60.7,53.1,30.14,NE,46,0.0,0.0,76,0.00,,---,0.00,VWS V14.01,2013-09-13 12:46:00,
2013-09-13 07:47:00,60.7,53.1,30.14,NE,46,0.0,0.0,76,0.00,,---,0.00,VWS V14.01,2013-09-13 12:47:00,
2013-09-13 07:48:00,60.7,53.1,30.14,NE,46,0.0,0.0,76,0.00,,---,0.00,VWS V14.01,2013-09-13 12:48:00,
2013-09-13 07:50:00,60.7,53.1,30.14,NE,46,0.0,0.0,76,0.00,,---,0.00,VWS V14.01,2013-09-13 12:50:00,
2013-09-13 07:51:00,60.5,52.9,30.14,NE,46,0.0,0.0,76,0.00,,---,0.00,VWS V14.01,2013-09-13 12:51:00,
2013-09-13 07:52:00,60.5,53.3,30.14,NE,46,0.0,0.0,77,0.00,,---,0.00,VWS V14.01,2013-09-13 12:52:00,
2013-09-13 07:53:00,60.5,53.3,30.14,NE,46,0.0,0.0,77,0.00,,---,0.00,VWS V14.01,2013-09-13 12:53:00,
2013-09-13 07:55:00,60.5,53.3,30.14,NE,46,0.0,0.0,77,0.00,,---,0.00,VWS V14.01,2013-09-13 12:55:00,
2013-09-13 07:56:00,60.5,53.3,30.14,NE,46,0.0,0.0,77,0.00,,---,0.00,VWS V14.01,2013-09-13 12:56:00,
2013-09-13 07:57:00,60.5,53.6,30.14,NE,46,0.0,0.0,78,0.00,,---,0.00,VWS V14.01,2013-09-13 12:57:00,
2013-09-13 07:58:00,60.5,53.6,30.14,NE,46,0.0,0.0,78,0.00,,---,0.00,VWS V14.01,2013-09-13 12:58:00,
2013-09-13 08:00:00,60.5,53.6,30.14,NE,46,0.0,0.0,78,0.00,,---,0.00,VWS V14.01,2013-09-13 13:00:00,
2013-09-13 08:01:00,60.5,53.6,30.14,NE,46,0.0,0.0,78,0.00,,---,0.00,VWS V14.01,2013-09-13 13:01:00,
2013-09-13 08:02:00,60.5,53.6,30.14,NE,46,0.0,0.0,78,0.00,,---,0.00,VWS V14.01,2013-09-13 13:02:00,
2013-09-13 08:03:00,60.5,53.6,30.14,NE,46,0.0,0.0,78,0.00,,---,0.00,VWS V14.01,2013-09-13 13:03:00,
2013-09-13 08:05:00,60.5,53.6,30.14,NE,46,0.0,0.0,78,0.00,,---,0.00,VWS V14.01,2013-09-13 13:05:00,
2013-09-13 08:06:00,60.5,53.6,30.14,NE,46,0.0,0.0,78,0.00,,---,0.00,VWS V14.01,2013-09-13 13:06:00,
2013-09-13 08:07:00,60.5,53.6,30.14,NE,46,0.0,0.0,78,0.00,,---,0.00,VWS V14.01,2013-09-13 13:07:00,
2013-09-13 08:08:00,60.7,53.8,30.14,NE,46,0.0,0.0,78,0.00,,---,0.00,VWS V14.01,2013-09-13 13:08:00,
2013-09-13 08:10:00,60.7,53.8,30.14,NE,46,0.0,0.0,78,0.00,,---,0.00,VWS V14.01,2013-09-13 13:10:00,
2013-09-13 08:11:00,60.9,54.0,30.14,NE,46,0.0,0.0,78,0.00,,---,0.00,VWS V14.01,2013-09-13 13:11:00,
2013-09-13 08:12:00,60.9,54.0,30.14,NE,46,0.0,0.0,78,0.00,,---,0.00,VWS V14.01,2013-09-13 13:12:00,
2013-09-13 08:13:00,60.9,53.7,30.14,NE,46,0.0,0.0,77,0.00,,---,0.00,VWS V14.01,2013-09-13 13:13:00,
2013-09-13 08:15:00,60.9,53.7,30.15,NE,46,0.0,0.0,77,0.00,,---,0.00,VWS V14.01,2013-09-13 13:15:00,
2013-09-13 08:16:00,61.0,53.8,30.15,NE,46,0.0,0.0,77,0.00,,---,0.00,VWS V14.01,2013-09-13 13:16:00,
2013-09-13 08:17:00,61.2,53.9,30.15,NE,46,0.0,0.0,77,0.00,,---,0.00,VWS V14.01,2013-09-13 13:17:00,
2013-09-13 08:18:00,61.2,53.9,30.15,NE,46,0.0,0.0,77,0.00,,---,0.00,VWS V14.01,2013-09-13 13:18:00,
2013-09-13 08:19:00,61.2,53.9,30.15,NE,46,0.0,0.0,77,0.00,,---,0.00,VWS V14.01,2013-09-13 13:19:00,
2013-09-13 08:20:00,61.3,54.0,30.15,NE,46,0.0,0.0,77,0.00,,---,0.00,VWS V14.01,2013-09-13 13:20:00,
2013-09-13 08:21:00,61.3,54.0,30.15,NE,46,0.0,0.0,77,0.00,,---,0.00,VWS V14.01,2013-09-13 13:21:00,
2013-09-13 08:22:00,61.5,54.2,30.15,NE,46,0.0,0.0,77,0.00,,---,0.00,VWS V14.01,2013-09-13 13:22:00,
2013-09-13 08:23:00,61.5,53.9,30.15,NE,46,0.0,0.0,76,0.00,,---,0.00,VWS V14.01,2013-09-13 13:23:00,
2013-09-13 08:25:00,61.6,54.0,30.15,NE,46,0.0,0.0,76,0.00,,---,0.00,VWS V14.01,2013-09-13 13:25:00,
2013-09-13 08:27:00,61.8,54.2,30.15,NE,46,0.0,0.0,76,0.00,,---,0.00,VWS V14.01,2013-09-13 13:27:00,
2013-09-13 08:28:00,62.0,54.0,30.15,NE,46,0.0,0.0,75,0.00,,---,0.00,VWS V14.01,2013-09-13 13:28:00,
2013-09-13 08:29:00,62.0,54.0,30.15,NE,46,0.0,0.0,75,0.00,,---,0.00,VWS V14.01,2013-09-13 13:29:00,
2013-09-13 08:30:00,62.1,54.1,30.15,NE,46,0.0,0.0,75,0.00,,---,0.00,VWS V14.01,2013-09-13 13:30:00,
2013-09-13 08:32:00,62.3,54.3,30.15,NE,46,0.0,0.0,75,0.00,,---,0.00,VWS V14.01,2013-09-13 13:32:00,
2013-09-13 08:33:00,62.3,53.9,30.15,NE,46,0.0,0.0,74,0.00,,---,0.00,VWS V14.01,2013-09-13 13:33:00,
2013-09-13 08:34:00,62.4,54.0,30.15,NE,47,0.0,2.0,74,0.00,,---,0.00,VWS V14.01,2013-09-13 13:34:00,
2013-09-13 08:35:00,62.4,53.6,30.15,NE,53,3.0,5.0,73,0.00,,---,0.00,VWS V14.01,2013-09-13 13:35:00,
2013-09-13 08:37:00,62.4,53.6,30.15,NE,55,4.0,5.0,73,0.00,,---,0.00,VWS V14.01,2013-09-13 13:37:00,
2013-09-13 08:38:00,62.4,53.6,30.15,NE,55,6.0,6.0,73,0.00,,---,0.00,VWS V14.01,2013-09-13 13:38:00,
2013-09-13 08:39:00,62.4,53.6,30.15,NE,48,6.0,7.0,73,0.00,,---,0.00,VWS V14.01,2013-09-13 13:39:00,
2013-09-13 08:40:00,62.4,53.6,30.15,NE,48,6.0,7.0,73,0.00,,---,0.00,VWS V14.01,2013-09-13 13:40:00,
2013-09-13 08:43:00,62.3,53.2,30.15,NE,55,6.0,9.0,72,0.00,,---,0.00,VWS V14.01,2013-09-13 13:43:00,
2013-09-13 08:44:00,62.4,53.3,30.15,ENE,70,6.0,9.0,72,0.00,,---,0.00,VWS V14.01,2013-09-13 13:44:00,
2013-09-13 08:45:00,62.4,53.3,30.14,ENE,70,5.0,9.0,72,0.00,,---,0.00,VWS V14.01,2013-09-13 13:45:00,
2013-09-13 08:48:00,62.6,54.2,30.14,ENE,69,6.0,9.0,74,0.00,,---,0.00,VWS V14.01,2013-09-13 13:48:00,
2013-09-13 08:49:00,62.6,53.5,30.14,ENE,67,4.0,9.0,72,0.00,,---,0.00,VWS V14.01,2013-09-13 13:49:00,
2013-09-13 08:50:00,62.6,53.8,30.14,ENE,57,5.0,9.0,73,0.00,,---,0.00,VWS V14.01,2013-09-13 13:50:00,
2013-09-13 08:53:00,62.6,53.1,30.14,ENE,70,6.0,9.0,71,0.00,,---,0.00,VWS V14.01,2013-09-13 13:53:00,
2013-09-13 08:54:00,62.7,53.5,30.14,ENE,70,3.0,9.0,72,0.00,,---,0.00,VWS V14.01,2013-09-13 13:54:00,
2013-09-13 08:55:00,62.7,53.5,30.14,ENE,71,4.0,9.0,72,0.00,,---,0.00,VWS V14.01,2013-09-13 13:55:00,
2013-09-13 08:56:00,62.7,53.5,30.14,ENE,71,3.0,9.0,72,0.00,,---,0.00,VWS V14.01,2013-09-13 13:56:00,
2013-09-13 08:58:00,62.7,53.2,30.14,ENE,71,3.0,9.0,71,0.00,,---,0.00,VWS V14.01,2013-09-13 13:58:00,
2013-09-13 09:00:00,62.7,53.5,30.14,ENE,57,3.0,9.0,72,0.00,,---,0.00,VWS V14.01,2013-09-13 14:00:00,
2013-09-13 09:01:00,62.9,54.1,30.14,ENE,66,6.0,6.0,73,0.00,,---,0.00,VWS V14.01,2013-09-13 14:01:00,
2013-09-13 09:03:00,62.9,53.4,30.14,ENE,68,5.0,7.0,71,0.00,,---,0.00,VWS V14.01,2013-09-13 14:03:00,
2013-09-13 09:05:00,63.1,53.6,30.14,ENE,63,5.0,7.0,71,0.00,,---,0.00,VWS V14.01,2013-09-13 14:05:00,
2013-09-13 09:06:00,63.2,53.7,30.14,ENE,61,4.0,7.0,71,0.00,,---,0.00,VWS V14.01,2013-09-13 14:06:00,
2013-09-13 09:08:00,63.2,54.0,30.14,ENE,59,6.0,7.0,72,0.00,,---,0.00,VWS V14.01,2013-09-13 14:08:00,
2013-09-13 09:10:00,63.2,53.7,30.14,NE,55,5.0,7.0,71,0.00,,---,0.00,VWS V14.01,2013-09-13 14:10:00,
2013-09-13 09:11:00,63.4,53.8,30.14,NE,55,4.0,6.0,71,0.00,,---,0.00,VWS V14.01,2013-09-13 14:11:00,
2013-09-13 09:13:00,63.4,54.2,30.14,ENE,57,6.0,8.0,72,0.00,,---,0.00,VWS V14.01,2013-09-13 14:13:00,
2013-09-13 09:14:00,63.4,53.8,30.14,ENE,71,4.0,8.0,71,0.00,,---,0.00,VWS V14.01,2013-09-13 14:14:00,
2013-09-13 09:15:00,63.4,53.8,30.15,ENE,71,4.0,8.0,71,0.00,,---,0.00,VWS V14.01,2013-09-13 14:15:00,
2013-09-13 09:17:00,63.5,54.3,30.15,ENE,66,4.0,8.0,72,0.00,,---,0.00,VWS V14.01,2013-09-13 14:17:00,
2013-09-13 09:18:00,63.5,53.9,30.15,ENE,66,6.0,8.0,71,0.00,,---,0.00,VWS V14.01,2013-09-13 14:18:00,
2013-09-13 09:19:00,63.5,53.5,30.15,ENE,61,6.0,8.0,70,0.00,,---,0.00,VWS V14.01,2013-09-13 14:19:00,
2013-09-13 09:20:00,63.5,53.5,30.15,ENE,61,5.0,8.0,70,0.00,,---,0.00,VWS V14.01,2013-09-13 14:20:00,
2013-09-13 09:21:00,63.5,53.5,30.15,ENE,61,5.0,5.0,70,0.00,,---,0.00,VWS V14.01,2013-09-13 14:21:00,
2013-09-13 09:22:00,63.7,53.7,30.15,ENE,62,5.0,5.0,70,0.00,,---,0.00,VWS V14.01,2013-09-13 14:22:00,
2013-09-13 09:23:00,63.7,53.7,30.15,ENE,62,3.0,5.0,70,0.00,,---,0.00,VWS V14.01,2013-09-13 14:23:00,
2013-09-13 09:24:00,63.7,53.7,30.15,ENE,58,5.0,5.0,70,0.00,,---,0.00,VWS V14.01,2013-09-13 14:24:00,
2013-09-13 09:25:00,63.9,53.9,30.15,ENE,58,3.0,6.0,70,0.00,,---,0.00,VWS V14.01,2013-09-13 14:25:00,
2013-09-13 09:26:00,63.9,53.9,30.15,ENE,58,4.0,6.0,70,0.00,,---,0.00,VWS V14.01,2013-09-13 14:26:00,
2013-09-13 09:27:00,64.0,54.0,30.15,ENE,58,4.0,6.0,70,0.00,,---,0.00,VWS V14.01,2013-09-13 14:27:00,
2013-09-13 09:28:00,64.0,54.0,30.15,ENE,58,5.0,6.0,70,0.00,,---,0.00,VWS V14.01,2013-09-13 14:28:00,
2013-09-13 09:29:00,64.0,54.0,30.15,ENE,59,4.0,6.0,70,0.00,,---,0.00,VWS V14.01,2013-09-13 14:29:00,
2013-09-13 09:30:00,64.2,54.6,30.15,ENE,59,4.0,6.0,71,0.00,,---,0.00,VWS V14.01,2013-09-13 14:30:00,
2013-09-13 09:31:00,64.2,54.2,30.15,ENE,66,5.0,6.0,70,0.00,,---,0.00,VWS V14.01,2013-09-13 14:31:00,
2013-09-13 09:32:00,64.2,53.4,30.15,ENE,67,5.0,6.0,68,0.00,,---,0.00,VWS V14.01,2013-09-13 14:32:00,
2013-09-13 09:33:00,64.3,54.3,30.15,ENE,64,5.0,6.0,70,0.00,,---,0.00,VWS V14.01,2013-09-13 14:33:00,
2013-09-13 09:34:00,64.3,54.3,30.15,ENE,64,5.0,6.0,70,0.00,,---,0.00,VWS V14.01,2013-09-13 14:34:00,
2013-09-13 09:35:00,64.3,53.9,30.15,NE,53,5.0,6.0,69,0.00,,---,0.00,VWS V14.01,2013-09-13 14:35:00,
2013-09-13 09:36:00,64.5,54.5,30.15,NE,55,5.0,6.0,70,0.00,,---,0.00,VWS V14.01,2013-09-13 14:36:00,
2013-09-13 09:37:00,64.5,53.7,30.15,ENE,58,5.0,7.0,68,0.00,,---,0.00,VWS V14.01,2013-09-13 14:37:00,
2013-09-13 09:38:00,64.5,54.1,30.15,ENE,58,6.0,7.0,69,0.00,,---,0.00,VWS V14.01,2013-09-13 14:38:00,
2013-09-13 09:39:00,64.7,54.3,30.15,ENE,59,6.0,7.0,69,0.00,,---,0.00,VWS V14.01,2013-09-13 14:39:00,
2013-09-13 09:40:00,64.7,54.3,30.15,ENE,59,6.0,7.0,69,0.00,,---,0.00,VWS V14.01,2013-09-13 14:40:00,
2013-09-13 09:41:00,64.8,54.4,30.15,ENE,59,7.0,7.0,69,0.00,,---,0.00,VWS V14.01,2013-09-13 14:41:00,
2013-09-13 09:42:00,64.7,52.7,30.15,ENE,67,9.0,10.0,65,0.00,,---,0.00,VWS V14.01,2013-09-13 14:42:00,
2013-09-13 09:43:00,64.8,52.8,30.15,ENE,65,11.0,11.0,65,0.00,,---,0.00,VWS V14.01,2013-09-13 14:43:00,
2013-09-13 09:44:00,64.8,52.8,30.15,ENE,66,7.0,11.0,65,0.00,,---,0.00,VWS V14.01,2013-09-13 14:44:00,
2013-09-13 09:45:00,65.0,53.0,30.15,ENE,66,6.0,11.0,65,0.00,,---,0.00,VWS V14.01,2013-09-13 14:45:00,
2013-09-13 09:46:00,65.0,53.0,30.15,East,81,4.0,11.0,65,0.00,,---,0.00,VWS V14.01,2013-09-13 14:46:00,
2013-09-13 09:48:00,65.3,53.2,30.15,ENE,72,5.0,11.0,65,0.00,,---,0.00,VWS V14.01,2013-09-13 14:48:00,
2013-09-13 09:49:00,65.3,53.2,30.15,ENE,58,6.0,11.0,65,0.00,,---,0.00,VWS V14.01,2013-09-13 14:49:00,
2013-09-13 09:50:00,65.3,53.2,30.15,ENE,72,5.0,11.0,65,0.00,,---,0.00,VWS V14.01,2013-09-13 14:50:00,
2013-09-13 09:51:00,65.3,53.2,30.15,ENE,59,6.0,7.0,65,0.00,,---,0.00,VWS V14.01,2013-09-13 14:51:00,
2013-09-13 09:53:00,65.3,52.8,30.15,ENE,69,6.0,7.0,64,0.00,,---,0.00,VWS V14.01,2013-09-13 14:53:00,
2013-09-13 09:54:00,65.5,53.4,30.15,ENE,61,8.0,9.0,65,0.00,,---,0.00,VWS V14.01,2013-09-13 14:54:00,
2013-09-13 09:55:00,65.5,53.4,30.15,ENE,72,5.0,9.0,65,0.00,,---,0.00,VWS V14.01,2013-09-13 14:55:00,
2013-09-13 09:56:00,65.5,53.4,30.15,ENE,67,7.0,9.0,65,0.00,,---,0.00,VWS V14.01,2013-09-13 14:56:00,
2013-09-13 09:58:00,65.6,53.1,30.15,NE,55,7.0,9.0,64,0.00,,---,0.00,VWS V14.01,2013-09-13 14:58:00,
2013-09-13 09:59:00,65.6,53.1,30.15,ENE,65,5.0,9.0,64,0.00,,---,0.00,VWS V14.01,2013-09-13 14:59:00,
2013-09-13 10:00:00,65.8,53.7,30.15,ENE,66,4.0,9.0,65,0.00,,---,0.00,VWS V14.01,2013-09-13 15:00:00,
2013-09-13 10:01:00,65.8,53.7,30.15,ENE,67,4.0,4.0,65,0.00,,---,0.00,VWS V14.01,2013-09-13 15:01:00,
2013-09-13 10:03:00,65.8,52.4,30.15,ENE,65,5.0,9.0,62,0.00,,---,0.00,VWS V14.01,2013-09-13 15:03:00,
2013-09-13 10:04:00,66.0,52.6,30.15,East,82,4.0,9.0,62,0.00,,---,0.00,VWS V14.01,2013-09-13 15:04:00,
2013-09-13 10:05:00,66.1,52.3,30.15,East,85,5.0,9.0,61,0.00,,---,0.00,VWS V14.01,2013-09-13 15:05:00,
2013-09-13 10:06:00,66.1,52.3,30.15,East,85,6.0,9.0,61,0.00,,---,0.00,VWS V14.01,2013-09-13 15:06:00,
2013-09-13 10:08:00,66.3,52.5,30.15,East,79,4.0,9.0,61,0.00,,---,0.00,VWS V14.01,2013-09-13 15:08:00,
2013-09-13 10:09:00,66.3,52.5,30.15,ENE,65,6.0,9.0,61,0.00,,---,0.00,VWS V14.01,2013-09-13 15:09:00,
2013-09-13 10:11:00,66.4,53.0,30.15,ENE,59,9.0,9.0,62,0.00,,---,0.00,VWS V14.01,2013-09-13 15:11:00,
2013-09-13 10:13:00,66.4,53.0,30.15,ENE,69,5.0,9.0,62,0.00,,---,0.00,VWS V14.01,2013-09-13 15:13:00,
2013-09-13 10:14:00,66.4,53.0,30.15,ENE,69,5.0,9.0,62,0.00,,---,0.00,VWS V14.01,2013-09-13 15:14:00,
2013-09-13 10:16:00,66.6,53.2,30.15,ENE,66,7.0,10.0,62,0.00,,---,0.00,VWS V14.01,2013-09-13 15:16:00,
2013-09-13 10:19:00,66.4,52.6,30.15,ENE,63,10.0,10.0,61,0.00,,---,0.00,VWS V14.01,2013-09-13 15:19:00,
2013-09-13 10:21:00,66.6,52.3,30.15,East,84,5.0,6.0,60,0.00,,---,0.00,VWS V14.01,2013-09-13 15:21:00,
2013-09-13 10:24:00,66.9,52.6,30.15,East,83,7.0,10.0,60,0.00,,---,0.00,VWS V14.01,2013-09-13 15:24:00,
2013-09-13 10:26:00,67.1,52.8,30.15,ENE,71,8.0,10.0,60,0.00,,---,0.00,VWS V14.01,2013-09-13 15:26:00,
2013-09-13 10:27:00,66.9,52.6,30.15,ENE,65,9.0,10.0,60,0.00,,---,0.00,VWS V14.01,2013-09-13 15:27:00,
2013-09-13 10:29:00,67.1,51.8,30.15,ENE,71,6.0,12.0,58,0.00,,---,0.00,VWS V14.01,2013-09-13 15:29:00,
2013-09-13 10:31:00,67.1,52.3,30.15,NE,52,12.0,12.0,59,0.00,,---,0.00,VWS V14.01,2013-09-13 15:31:00,
2013-09-13 10:32:00,67.3,52.5,30.15,ENE,76,10.0,12.0,59,0.00,,---,0.00,VWS V14.01,2013-09-13 15:32:00,
2013-09-13 10:34:00,67.4,52.1,30.15,ENE,61,10.0,12.0,58,0.00,,---,0.00,VWS V14.01,2013-09-13 15:34:00,
2013-09-13 10:36:00,67.4,51.7,30.15,ENE,74,5.0,12.0,57,0.00,,---,0.00,VWS V14.01,2013-09-13 15:36:00,
2013-09-13 10:37:00,67.6,51.8,30.15,ENE,67,10.0,12.0,57,0.00,,---,0.00,VWS V14.01,2013-09-13 15:37:00,
2013-09-13 10:39:00,67.6,51.4,30.15,ENE,72,8.0,12.0,56,0.00,,---,0.00,VWS V14.01,2013-09-13 15:39:00,
2013-09-13 10:40:00,67.8,52.0,30.15,ENE,73,6.0,12.0,57,0.00,,---,0.00,VWS V14.01,2013-09-13 15:40:00,
2013-09-13 10:41:00,67.9,51.6,30.15,ENE,74,7.0,12.0,56,0.00,,---,0.00,VWS V14.01,2013-09-13 15:41:00,
2013-09-13 10:42:00,67.9,51.6,30.15,ENE,75,7.0,12.0,56,0.00,,---,0.00,VWS V14.01,2013-09-13 15:42:00,
2013-09-13 10:44:00,67.9,51.2,30.15,ENE,67,9.0,12.0,55,0.00,,---,0.00,VWS V14.01,2013-09-13 15:44:00,
2013-09-13 10:45:00,67.9,51.2,30.14,East,83,6.0,12.0,55,0.00,,---,0.00,VWS V14.01,2013-09-13 15:45:00,
2013-09-13 10:46:00,68.1,51.3,30.14,ENE,61,11.0,12.0,55,0.00,,---,0.00,VWS V14.01,2013-09-13 15:46:00,
2013-09-13 10:47:00,68.1,52.3,30.14,East,80,10.0,12.0,57,0.00,,---,0.00,VWS V14.01,2013-09-13 15:47:00,
2013-09-13 10:49:00,68.3,52.5,30.14,ENE,57,9.0,12.0,57,0.00,,---,0.00,VWS V14.01,2013-09-13 15:49:00,
2013-09-13 10:50:00,68.3,52.5,30.14,ENE,69,6.0,12.0,57,0.00,,---,0.00,VWS V14.01,2013-09-13 15:50:00,
2013-09-13 10:51:00,68.4,52.6,30.14,ENE,78,5.0,7.0,57,0.00,,---,0.00,VWS V14.01,2013-09-13 15:51:00,
2013-09-13 10:52:00,68.4,52.6,30.14,ENE,61,9.0,10.0,57,0.00,,---,0.00,VWS V14.01,2013-09-13 15:52:00,
2013-09-13 10:54:00,68.6,51.8,30.14,ENE,75,6.0,10.0,55,0.00,,---,0.00,VWS V14.01,2013-09-13 15:54:00,
2013-09-13 10:55:00,68.8,51.5,30.14,East,84,5.0,11.0,54,0.00,,---,0.00,VWS V14.01,2013-09-13 15:55:00,
2013-09-13 10:56:00,68.8,51.5,30.14,NE,49,6.0,11.0,54,0.00,,---,0.00,VWS V14.01,2013-09-13 15:56:00,
2013-09-13 10:57:00,68.8,52.5,30.14,ENE,65,6.0,11.0,56,0.00,,---,0.00,VWS V14.01,2013-09-13 15:57:00,
2013-09-13 10:59:00,68.9,52.1,30.14,East,94,6.0,11.0,55,0.00,,---,0.00,VWS V14.01,2013-09-13 15:59:00,
2013-09-13 11:00:00,69.1,51.8,30.14,ENE,62,6.0,11.0,54,0.00,,---,0.00,VWS V14.01,2013-09-13 16:00:00,
2013-09-13 11:01:00,69.1,52.3,30.14,ENE,73,7.0,9.0,55,0.00,,---,0.00,VWS V14.01,2013-09-13 16:01:00,
2013-09-13 11:02:00,69.1,51.3,30.14,East,92,6.0,9.0,53,0.00,,---,0.00,VWS V14.01,2013-09-13 16:02:00,
2013-09-13 11:04:00,69.3,51.5,30.14,East,97,6.0,10.0,53,0.00,,---,0.00,VWS V14.01,2013-09-13 16:04:00,
2013-09-13 11:05:00,69.3,50.4,30.14,East,95,9.0,10.0,51,0.00,,---,0.00,VWS V14.01,2013-09-13 16:05:00,
2013-09-13 11:06:00,69.3,49.9,30.14,East,96,10.0,10.0,50,0.00,,---,0.00,VWS V14.01,2013-09-13 16:06:00,
2013-09-13 11:07:00,69.3,49.9,30.14,ENE,78,4.0,10.0,50,0.00,,---,0.00,VWS V14.01,2013-09-13 16:07:00,
2013-09-13 11:09:00,69.4,50.5,30.14,ENE,60,5.0,10.0,51,0.00,,---,0.00,VWS V14.01,2013-09-13 16:09:00,
2013-09-13 11:10:00,69.6,51.2,30.14,East,84,9.0,11.0,52,0.00,,---,0.00,VWS V14.01,2013-09-13 16:10:00,
2013-09-13 11:11:00,69.6,50.2,30.14,ENE,75,9.0,10.0,50,0.00,,---,0.00,VWS V14.01,2013-09-13 16:11:00,
2013-09-13 11:12:00,69.4,49.4,30.14,ENE,74,7.0,10.0,49,0.00,,---,0.00,VWS V14.01,2013-09-13 16:12:00,
2013-09-13 11:14:00,69.6,50.2,30.14,NE,39,7.0,10.0,50,0.00,,---,0.00,VWS V14.01,2013-09-13 16:14:00,
2013-09-13 11:15:00,69.9,49.9,30.15,East,90,10.0,14.0,49,0.00,,---,0.00,VWS V14.01,2013-09-13 16:15:00,
2013-09-13 11:16:00,69.9,49.3,30.15,East,90,9.0,14.0,48,0.00,,---,0.00,VWS V14.01,2013-09-13 16:16:00,
2013-09-13 11:17:00,69.9,49.3,30.15,ENE,70,10.0,14.0,48,0.00,,---,0.00,VWS V14.01,2013-09-13 16:17:00,
2013-09-13 11:18:00,69.9,49.3,30.15,ENE,61,10.0,14.0,48,0.00,,---,0.00,VWS V14.01,2013-09-13 16:18:00,
2013-09-13 11:19:00,69.9,49.9,30.15,East,83,7.0,14.0,49,0.00,,---,0.00,VWS V14.01,2013-09-13 16:19:00,
2013-09-13 11:21:00,70.1,50.1,30.15,East,96,11.0,11.0,49,0.00,,---,0.00,VWS V14.01,2013-09-13 16:21:00,
2013-09-13 11:22:00,70.1,49.0,30.15,East,88,5.0,11.0,47,0.00,,---,0.00,VWS V14.01,2013-09-13 16:22:00,
2013-09-13 11:23:00,70.3,49.7,30.15,East,82,8.0,11.0,48,0.00,,---,0.00,VWS V14.01,2013-09-13 16:23:00,
2013-09-13 11:24:00,70.4,49.8,30.15,East,101,7.0,13.0,48,0.00,,---,0.00,VWS V14.01,2013-09-13 16:24:00,
2013-09-13 11:26:00,70.4,48.7,30.15,ENE,76,6.0,13.0,46,0.00,,---,0.00,VWS V14.01,2013-09-13 16:26:00,
2013-09-13 11:27:00,70.4,48.7,30.15,East,94,10.0,13.0,46,0.00,,---,0.00,VWS V14.01,2013-09-13 16:27:00,
2013-09-13 11:28:00,70.3,48.0,30.15,East,96,7.0,13.0,45,0.00,,---,0.00,VWS V14.01,2013-09-13 16:28:00,
2013-09-13 11:29:00,70.3,48.6,30.15,East,89,6.0,13.0,46,0.00,,---,0.00,VWS V14.01,2013-09-13 16:29:00,
2013-09-13 11:31:00,70.6,51.1,30.15,ENE,70,7.0,10.0,50,0.00,,---,0.00,VWS V14.01,2013-09-13 16:31:00,
2013-09-13 11:32:00,70.6,50.5,30.15,ENE,61,7.0,10.0,49,0.00,,---,0.00,VWS V14.01,2013-09-13 16:32:00,
2013-09-13 11:33:00,70.4,50.3,30.15,ENE,78,6.0,10.0,49,0.00,,---,0.00,VWS V14.01,2013-09-13 16:33:00,
2013-09-13 11:34:00,70.4,49.2,30.15,East,96,6.0,10.0,47,0.00,,---,0.00,VWS V14.01,2013-09-13 16:34:00,
2013-09-13 11:36:00,70.4,49.8,30.15,East,99,8.0,11.0,48,0.00,,---,0.00,VWS V14.01,2013-09-13 16:36:00,
2013-09-13 11:37:00,70.4,49.8,30.15,East,100,6.0,11.0,48,0.00,,---,0.00,VWS V14.01,2013-09-13 16:37:00,
2013-09-13 11:38:00,70.6,48.8,30.15,ESE,113,11.0,12.0,46,0.00,,---,0.00,VWS V14.01,2013-09-13 16:38:00,
2013-09-13 11:39:00,70.6,49.4,30.15,East,101,8.0,12.0,47,0.00,,---,0.00,VWS V14.01,2013-09-13 16:39:00,
2013-09-13 11:41:00,70.6,49.4,30.15,East,88,3.0,9.0,47,0.00,,---,0.00,VWS V14.01,2013-09-13 16:41:00,
2013-09-13 11:42:00,70.6,49.4,30.15,ESE,111,9.0,9.0,47,0.00,,---,0.00,VWS V14.01,2013-09-13 16:42:00,
2013-09-13 11:43:00,70.6,48.8,30.15,ESE,119,3.0,9.0,46,0.00,,---,0.00,VWS V14.01,2013-09-13 16:43:00,
2013-09-13 11:44:00,70.8,49.6,30.15,ESE,109,7.0,10.0,47,0.00,,---,0.00,VWS V14.01,2013-09-13 16:44:00,
2013-09-13 11:46:00,70.8,48.4,30.14,ENE,71,4.0,10.0,45,0.00,,---,0.00,VWS V14.01,2013-09-13 16:46:00,
2013-09-13 11:47:00,70.8,48.4,30.14,East,82,4.0,10.0,45,0.00,,---,0.00,VWS V14.01,2013-09-13 16:47:00,
2013-09-13 11:48:00,70.8,49.0,30.14,East,86,7.0,10.0,46,0.00,,---,0.00,VWS V14.01,2013-09-13 16:48:00,
2013-09-13 11:49:00,70.9,49.7,30.14,ENE,68,6.0,10.0,47,0.00,,---,0.00,VWS V14.01,2013-09-13 16:49:00,
2013-09-13 11:51:00,71.1,49.9,30.14,East,99,10.0,13.0,47,0.00,,---,0.00,VWS V14.01,2013-09-13 16:51:00,
2013-09-13 11:52:00,70.9,47.9,30.14,East,90,7.0,13.0,44,0.00,,---,0.00,VWS V14.01,2013-09-13 16:52:00,
2013-09-13 11:53:00,70.9,48.5,30.14,East,81,4.0,13.0,45,0.00,,---,0.00,VWS V14.01,2013-09-13 16:53:00,
2013-09-13 11:54:00,70.9,48.5,30.14,ENE,71,9.0,13.0,45,0.00,,---,0.00,VWS V14.01,2013-09-13 16:54:00,
2013-09-13 11:55:00,71.1,48.7,30.14,East,83,11.0,13.0,45,0.00,,---,0.00,VWS V14.01,2013-09-13 16:55:00,
2013-09-13 11:56:00,70.9,48.5,30.14,East,98,11.0,13.0,45,0.00,,---,0.00,VWS V14.01,2013-09-13 16:56:00,
2013-09-13 11:57:00,70.9,47.3,30.14,East,80,9.0,14.0,43,0.00,,---,0.00,VWS V14.01,2013-09-13 16:57:00,
2013-09-13 11:59:00,70.9,48.5,30.14,ENE,75,6.0,14.0,45,0.00,,---,0.00,VWS V14.01,2013-09-13 16:59:00,
2013-09-13 12:00:00,70.9,49.7,30.14,ENE,78,6.0,14.0,47,0.00,,---,0.00,VWS V14.01,2013-09-13 17:00:00,
2013-09-13 12:02:00,71.3,50.6,30.13,ENE,63,10.0,12.0,48,0.00,,---,0.00,VWS V14.01,2013-09-13 17:02:00,
2013-09-13 12:04:00,71.1,48.7,30.13,ENE,71,10.0,14.0,45,0.00,,---,0.00,VWS V14.01,2013-09-13 17:04:00,
2013-09-13 12:05:00,70.9,47.9,30.13,ENE,67,9.0,14.0,44,0.00,,---,0.00,VWS V14.01,2013-09-13 17:05:00,
2013-09-13 12:07:00,71.1,49.3,30.13,ENE,71,7.0,14.0,46,0.00,,---,0.00,VWS V14.01,2013-09-13 17:07:00,
2013-09-13 12:08:00,71.1,48.7,30.13,ENE,73,4.0,14.0,45,0.00,,---,0.00,VWS V14.01,2013-09-13 17:08:00,
2013-09-13 12:09:00,71.1,48.7,30.13,East,95,11.0,14.0,45,0.00,,---,0.00,VWS V14.01,2013-09-13 17:09:00,
2013-09-13 12:10:00,71.1,48.7,30.13,East,94,11.0,14.0,45,0.00,,---,0.00,VWS V14.01,2013-09-13 17:10:00,
2013-09-13 12:12:00,71.1,47.5,30.13,East,86,6.0,10.0,43,0.00,,---,0.00,VWS V14.01,2013-09-13 17:12:00,
2013-09-13 12:13:00,70.9,47.9,30.13,ENE,69,8.0,10.0,44,0.00,,---,0.00,VWS V14.01,2013-09-13 17:13:00,
2013-09-13 12:14:00,70.9,47.9,30.13,NE,56,7.0,10.0,44,0.00,,---,0.00,VWS V14.01,2013-09-13 17:14:00,
2013-09-13 12:15:00,70.9,48.5,30.13,East,87,5.0,11.0,45,0.00,,---,0.00,VWS V14.01,2013-09-13 17:15:00,
2013-09-13 12:17:00,70.9,48.5,30.13,NE,50,9.0,11.0,45,0.00,,---,0.00,VWS V14.01,2013-09-13 17:17:00,
2013-09-13 12:18:00,71.1,49.3,30.13,ENE,69,11.0,13.0,46,0.00,,---,0.00,VWS V14.01,2013-09-13 17:18:00,
2013-09-13 12:19:00,71.1,49.9,30.13,East,97,9.0,13.0,47,0.00,,---,0.00,VWS V14.01,2013-09-13 17:19:00,
2013-09-13 12:21:00,71.3,48.9,30.13,ENE,72,8.0,8.0,45,0.00,,---,0.00,VWS V14.01,2013-09-13 17:21:00,
2013-09-13 12:22:00,71.1,48.7,30.13,ENE,67,12.0,15.0,45,0.00,,---,0.00,VWS V14.01,2013-09-13 17:22:00,
2013-09-13 12:23:00,71.1,48.7,30.13,ENE,59,14.0,15.0,45,0.00,,---,0.00,VWS V14.01,2013-09-13 17:23:00,
2013-09-13 12:24:00,70.9,49.1,30.13,NE,55,14.0,15.0,46,0.00,,---,0.00,VWS V14.01,2013-09-13 17:24:00,
2013-09-13 12:26:00,70.9,49.1,30.13,ENE,64,10.0,15.0,46,0.00,,---,0.00,VWS V14.01,2013-09-13 17:26:00,
2013-09-13 12:27:00,70.8,48.4,30.13,ENE,57,10.0,15.0,45,0.00,,---,0.00,VWS V14.01,2013-09-13 17:27:00,
2013-09-13 12:28:00,70.8,50.2,30.13,ENE,65,9.0,15.0,48,0.00,,---,0.00,VWS V14.01,2013-09-13 17:28:00,
2013-09-13 12:29:00,70.8,48.4,30.13,ENE,61,8.0,15.0,45,0.00,,---,0.00,VWS V14.01,2013-09-13 17:29:00,
2013-09-13 12:30:00,70.8,48.4,30.12,ENE,64,7.0,15.0,45,0.00,,---,0.00,VWS V14.01,2013-09-13 17:30:00,
2013-09-13 12:31:00,70.9,49.1,30.12,ENE,59,6.0,7.0,46,0.00,,---,0.00,VWS V14.01,2013-09-13 17:31:00,
2013-09-13 12:32:00,70.9,49.7,30.12,ENE,65,5.0,9.0,47,0.00,,---,0.00,VWS V14.01,2013-09-13 17:32:00,
2013-09-13 12:33:00,70.9,48.5,30.12,NE,55,4.0,9.0,45,0.00,,---,0.00,VWS V14.01,2013-09-13 17:33:00,
2013-09-13 12:34:00,70.9,49.1,30.12,East,92,6.0,10.0,46,0.00,,---,0.00,VWS V14.01,2013-09-13 17:34:00,
2013-09-13 12:35:00,70.9,49.1,30.12,East,80,5.0,10.0,46,0.00,,---,0.00,VWS V14.01,2013-09-13 17:35:00,
2013-09-13 12:36:00,71.1,49.9,30.12,ENE,59,6.0,10.0,47,0.00,,---,0.00,VWS V14.01,2013-09-13 17:36:00,
2013-09-13 12:37:00,71.3,50.6,30.12,East,82,9.0,11.0,48,0.00,,---,0.00,VWS V14.01,2013-09-13 17:37:00,
2013-09-13 12:38:00,71.5,49.7,30.12,East,84,7.0,11.0,46,0.00,,---,0.00,VWS V14.01,2013-09-13 17:38:00,
2013-09-13 12:39:00,71.6,50.3,30.12,NE,49,5.0,11.0,47,0.00,,---,0.00,VWS V14.01,2013-09-13 17:39:00,
2013-09-13 12:40:00,71.8,50.5,30.12,ENE,67,12.0,12.0,47,0.00,,---,0.00,VWS V14.01,2013-09-13 17:40:00,
2013-09-13 12:41:00,71.6,49.8,30.12,ENE,65,11.0,13.0,46,0.00,,---,0.00,VWS V14.01,2013-09-13 17:41:00,
2013-09-13 12:42:00,71.6,49.8,30.12,ENE,59,10.0,13.0,46,0.00,,---,0.00,VWS V14.01,2013-09-13 17:42:00,
2013-09-13 12:43:00,71.6,49.2,30.12,ENE,58,7.0,13.0,45,0.00,,---,0.00,VWS V14.01,2013-09-13 17:43:00,
2013-09-13 12:44:00,71.6,49.2,30.12,NE,36,6.0,13.0,45,0.00,,---,0.00,VWS V14.01,2013-09-13 17:44:00,
2013-09-13 12:45:00,71.6,49.2,30.12,ENE,64,10.0,13.0,45,0.00,,---,0.00,VWS V14.01,2013-09-13 17:45:00,
2013-09-13 12:46:00,71.5,49.1,30.12,NE,50,10.0,13.0,45,0.00,,---,0.00,VWS V14.01,2013-09-13 17:46:00,
2013-09-13 12:47:00,71.5,48.5,30.12,NE,48,10.0,13.0,44,0.00,,---,0.00,VWS V14.01,2013-09-13 17:47:00,
2013-09-13 12:48:00,71.5,48.5,30.12,East,83,10.0,13.0,44,0.00,,---,0.00,VWS V14.01,2013-09-13 17:48:00,
2013-09-13 12:49:00,71.5,48.5,30.12,ENE,78,7.0,13.0,44,0.00,,---,0.00,VWS V14.01,2013-09-13 17:49:00,
2013-09-13 12:50:00,71.3,47.7,30.12,ENE,68,6.0,13.0,43,0.00,,---,0.00,VWS V14.01,2013-09-13 17:50:00,
2013-09-13 12:51:00,71.3,47.7,30.12,ENE,71,5.0,11.0,43,0.00,,---,0.00,VWS V14.01,2013-09-13 17:51:00,
2013-09-13 12:52:00,71.1,47.5,30.12,ENE,77,6.0,11.0,43,0.00,,---,0.00,VWS V14.01,2013-09-13 17:52:00,
2013-09-13 12:53:00,71.1,48.1,30.12,ENE,78,10.0,14.0,44,0.00,,---,0.00,VWS V14.01,2013-09-13 17:53:00,
2013-09-13 12:54:00,71.1,48.7,30.12,ENE,69,9.0,14.0,45,0.00,,---,0.00,VWS V14.01,2013-09-13 17:54:00,
2013-09-13 12:55:00,71.1,48.7,30.12,East,83,11.0,17.0,45,0.00,,---,0.00,VWS V14.01,2013-09-13 17:55:00,
2013-09-13 12:56:00,71.1,48.1,30.12,ENE,57,11.0,17.0,44,0.00,,---,0.00,VWS V14.01,2013-09-13 17:56:00,
2013-09-13 12:57:00,71.1,49.3,30.12,ENE,58,7.0,17.0,46,0.00,,---,0.00,VWS V14.01,2013-09-13 17:57:00,
2013-09-13 12:58:00,71.1,48.7,30.12,ENE,71,10.0,17.0,45,0.00,,---,0.00,VWS V14.01,2013-09-13 17:58:00,
2013-09-13 12:59:00,70.9,47.9,30.12,ENE,69,12.0,17.0,44,0.00,,---,0.00,VWS V14.01,2013-09-13 17:59:00,
2013-09-13 13:01:00,70.9,47.3,30.11,ENE,61,12.0,12.0,43,0.00,,---,0.00,VWS V14.01,2013-09-13 18:01:00,
2013-09-13 13:02:00,70.9,47.9,30.11,ENE,61,11.0,13.0,44,0.00,,---,0.00,VWS V14.01,2013-09-13 18:02:00,
2013-09-13 13:03:00,70.9,47.9,30.11,ENE,67,12.0,13.0,44,0.00,,---,0.00,VWS V14.01,2013-09-13 18:03:00,
2013-09-13 13:04:00,71.1,48.7,30.11,East,84,10.0,13.0,45,0.00,,---,0.00,VWS V14.01,2013-09-13 18:04:00,
2013-09-13 13:06:00,71.1,48.7,30.11,ENE,68,9.0,13.0,45,0.00,,---,0.00,VWS V14.01,2013-09-13 18:06:00,
2013-09-13 13:07:00,71.1,49.3,30.11,ENE,65,9.0,13.0,46,0.00,,---,0.00,VWS V14.01,2013-09-13 18:07:00,
2013-09-13 13:08:00,71.1,48.1,30.11,NE,55,9.0,13.0,44,0.00,,---,0.00,VWS V14.01,2013-09-13 18:08:00,
2013-09-13 13:09:00,71.1,48.1,30.11,ENE,75,9.0,13.0,44,0.00,,---,0.00,VWS V14.01,2013-09-13 18:09:00,
2013-09-13 13:11:00,71.1,48.7,30.11,ENE,61,7.0,7.0,45,0.00,,---,0.00,VWS V14.01,2013-09-13 18:11:00,
2013-09-13 13:12:00,71.3,50.0,30.11,ENE,73,6.0,10.0,47,0.00,,---,0.00,VWS V14.01,2013-09-13 18:12:00,
2013-09-13 13:13:00,71.3,49.5,30.11,ENE,70,7.0,10.0,46,0.00,,---,0.00,VWS V14.01,2013-09-13 18:13:00,
2013-09-13 13:14:00,71.5,49.7,30.11,NE,56,9.0,11.0,46,0.00,,---,0.00,VWS V14.01,2013-09-13 18:14:00,
2013-09-13 13:16:00,71.6,49.8,30.10,ENE,67,14.0,14.0,46,0.00,,---,0.00,VWS V14.01,2013-09-13 18:16:00,
2013-09-13 13:17:00,71.6,49.2,30.10,ENE,69,7.0,14.0,45,0.00,,---,0.00,VWS V14.01,2013-09-13 18:17:00,
2013-09-13 13:18:00,71.5,47.8,30.10,ENE,69,4.0,14.0,43,0.00,,---,0.00,VWS V14.01,2013-09-13 18:18:00,
2013-09-13 13:19:00,71.6,49.8,30.10,ENE,69,9.0,14.0,46,0.00,,---,0.00,VWS V14.01,2013-09-13 18:19:00,
2013-09-13 13:21:00,71.6,48.6,30.10,ENE,68,8.0,10.0,44,0.00,,---,0.00,VWS V14.01,2013-09-13 18:21:00,
2013-09-13 13:22:00,71.6,49.2,30.10,NE,55,7.0,11.0,45,0.00,,---,0.00,VWS V14.01,2013-09-13 18:22:00,
2013-09-13 13:23:00,71.6,49.2,30.10,ENE,66,6.0,11.0,45,0.00,,---,0.00,VWS V14.01,2013-09-13 18:23:00,
2013-09-13 13:24:00,71.6,48.6,30.10,NE,49,5.0,11.0,44,0.00,,---,0.00,VWS V14.01,2013-09-13 18:24:00,
2013-09-13 13:26:00,71.6,49.8,30.10,NE,47,5.0,11.0,46,0.00,,---,0.00,VWS V14.01,2013-09-13 18:26:00,
2013-09-13 13:27:00,71.8,49.9,30.10,ENE,76,6.0,11.0,46,0.00,,---,0.00,VWS V14.01,2013-09-13 18:27:00,
2013-09-13 13:28:00,71.8,49.9,30.10,East,80,6.0,11.0,46,0.00,,---,0.00,VWS V14.01,2013-09-13 18:28:00,
2013-09-13 13:29:00,72.0,50.1,30.10,ENE,61,6.0,11.0,46,0.00,,---,0.00,VWS V14.01,2013-09-13 18:29:00,
2013-09-13 13:31:00,72.0,48.3,30.10,East,81,10.0,10.0,43,0.00,,---,0.00,VWS V14.01,2013-09-13 18:31:00,
2013-09-13 13:32:00,72.0,48.3,30.10,ENE,74,10.0,12.0,43,0.00,,---,0.00,VWS V14.01,2013-09-13 18:32:00,
2013-09-13 13:33:00,72.0,48.3,30.10,ENE,70,10.0,12.0,43,0.00,,---,0.00,VWS V14.01,2013-09-13 18:33:00,
2013-09-13 13:34:00,71.8,48.1,30.10,ENE,62,4.0,12.0,43,0.00,,---,0.00,VWS V14.01,2013-09-13 18:34:00,
2013-09-13 13:36:00,71.6,47.9,30.10,NE,50,7.0,12.0,43,0.00,,---,0.00,VWS V14.01,2013-09-13 18:36:00,
2013-09-13 13:37:00,71.6,48.6,30.10,NE,53,10.0,12.0,44,0.00,,---,0.00,VWS V14.01,2013-09-13 18:37:00,
2013-09-13 13:38:00,71.6,48.6,30.10,ENE,65,10.0,12.0,44,0.00,,---,0.00,VWS V14.01,2013-09-13 18:38:00,
2013-09-13 13:39:00,71.8,48.7,30.10,ENE,57,7.0,12.0,44,0.00,,---,0.00,VWS V14.01,2013-09-13 18:39:00,
2013-09-13 13:41:00,72.0,49.5,30.10,NE,46,4.0,4.0,45,0.00,,---,0.00,VWS V14.01,2013-09-13 18:41:00,
2013-09-13 13:43:00,72.1,49.6,30.10,ENE,65,6.0,9.0,45,0.00,,---,0.00,VWS V14.01,2013-09-13 18:43:00,
2013-09-13 13:44:00,72.3,50.4,30.10,East,79,6.0,9.0,46,0.00,,---,0.00,VWS V14.01,2013-09-13 18:44:00,
2013-09-13 13:46:00,72.3,49.8,30.10,ENE,76,5.0,9.0,45,0.00,,---,0.00,VWS V14.01,2013-09-13 18:46:00,
2013-09-13 13:48:00,72.1,48.4,30.10,NE,56,5.0,9.0,43,0.00,,---,0.00,VWS V14.01,2013-09-13 18:48:00,
2013-09-13 13:49:00,72.1,48.4,30.10,NE,55,7.0,9.0,43,0.00,,---,0.00,VWS V14.01,2013-09-13 18:49:00,
2013-09-13 13:51:00,72.1,48.4,30.10,ENE,62,6.0,6.0,43,0.00,,---,0.00,VWS V14.01,2013-09-13 18:51:00,
2013-09-13 13:53:00,72.1,49.6,30.10,NE,44,6.0,7.0,45,0.00,,---,0.00,VWS V14.01,2013-09-13 18:53:00,
2013-09-13 13:54:00,72.3,51.0,30.10,NE,54,6.0,7.0,47,0.00,,---,0.00,VWS V14.01,2013-09-13 18:54:00,
2013-09-13 13:55:00,72.3,48.6,30.10,ENE,71,10.0,11.0,43,0.00,,---,0.00,VWS V14.01,2013-09-13 18:55:00,
2013-09-13 13:57:00,72.1,48.4,30.10,ENE,68,5.0,11.0,43,0.00,,---,0.00,VWS V14.01,2013-09-13 18:57:00,
2013-09-13 13:58:00,72.3,49.2,30.10,ENE,59,7.0,11.0,44,0.00,,---,0.00,VWS V14.01,2013-09-13 18:58:00,
2013-09-13 13:59:00,72.3,48.6,30.10,ENE,60,6.0,11.0,43,0.00,,---,0.00,VWS V14.01,2013-09-13 18:59:00,
2013-09-13 14:00:00,72.3,48.6,30.10,ENE,59,4.0,11.0,43,0.00,,---,0.00,VWS V14.01,2013-09-13 19:00:00,
2013-09-13 14:02:00,72.1,47.1,30.09,NE,49,7.0,7.0,41,0.00,,---,0.00,VWS V14.01,2013-09-13 19:02:00,
2013-09-13 14:03:00,72.1,48.4,30.09,ENE,65,10.0,11.0,43,0.00,,---,0.00,VWS V14.01,2013-09-13 19:03:00,
2013-09-13 14:04:00,72.1,48.4,30.09,ENE,66,9.0,11.0,43,0.00,,---,0.00,VWS V14.01,2013-09-13 19:04:00,
2013-09-13 14:05:00,72.1,48.4,30.09,ENE,62,7.0,11.0,43,0.00,,---,0.00,VWS V14.01,2013-09-13 19:05:00,
2013-09-13 14:07:00,72.1,47.8,30.09,East,82,5.0,11.0,42,0.00,,---,0.00,VWS V14.01,2013-09-13 19:07:00,
2013-09-13 14:08:00,72.1,47.1,30.09,East,86,5.0,11.0,41,0.00,,---,0.00,VWS V14.01,2013-09-13 19:08:00,
2013-09-13 14:09:00,72.1,47.1,30.09,East,86,5.0,11.0,41,0.00,,---,0.00,VWS V14.01,2013-09-13 19:09:00,
2013-09-13 14:10:00,72.1,47.1,30.09,ENE,65,7.0,11.0,41,0.00,,---,0.00,VWS V14.01,2013-09-13 19:10:00,
2013-09-13 14:12:00,72.1,47.8,30.09,ENE,70,5.0,7.0,42,0.00,,---,0.00,VWS V14.01,2013-09-13 19:12:00,
2013-09-13 14:13:00,72.0,47.7,30.09,ENE,71,5.0,7.0,42,0.00,,---,0.00,VWS V14.01,2013-09-13 19:13:00,
2013-09-13 14:14:00,72.0,47.7,30.09,ENE,71,4.0,7.0,42,0.00,,---,0.00,VWS V14.01,2013-09-13 19:14:00,
2013-09-13 14:15:00,72.1,48.4,30.09,NE,53,4.0,7.0,43,0.00,,---,0.00,VWS V14.01,2013-09-13 19:15:00,
2013-09-13 14:17:00,72.3,47.3,30.08,ENE,61,7.0,10.0,41,0.00,,---,0.00,VWS V14.01,2013-09-13 19:17:00,
2013-09-13 14:18:00,72.5,48.1,30.08,ENE,69,7.0,10.0,42,0.00,,---,0.00,VWS V14.01,2013-09-13 19:18:00,
2013-09-13 14:19:00,72.5,48.1,30.08,ENE,69,5.0,10.0,42,0.00,,---,0.00,VWS V14.01,2013-09-13 19:19:00,
2013-09-13 14:20:00,72.5,48.8,30.08,NE,53,6.0,10.0,43,0.00,,---,0.00,VWS V14.01,2013-09-13 19:20:00,
2013-09-13 14:22:00,72.7,48.3,30.08,ENE,59,5.0,5.0,42,0.00,,---,0.00,VWS V14.01,2013-09-13 19:22:00,
2013-09-13 14:23:00,72.7,48.3,30.08,ENE,60,5.0,5.0,42,0.00,,---,0.00,VWS V14.01,2013-09-13 19:23:00,
2013-09-13 14:24:00,72.7,48.3,30.08,ENE,60,5.0,5.0,42,0.00,,---,0.00,VWS V14.01,2013-09-13 19:24:00,
2013-09-13 14:25:00,72.7,48.9,30.08,ENE,60,2.0,6.0,43,0.00,,---,0.00,VWS V14.01,2013-09-13 19:25:00,
2013-09-13 14:27:00,73.0,48.6,30.08,NE,41,4.0,6.0,42,0.00,,---,0.00,VWS V14.01,2013-09-13 19:27:00,
2013-09-13 14:28:00,73.0,48.6,30.08,ENE,58,9.0,10.0,42,0.00,,---,0.00,VWS V14.01,2013-09-13 19:28:00,
2013-09-13 14:29:00,73.0,47.3,30.08,NNE,29,4.0,10.0,40,0.00,,---,0.00,VWS V14.01,2013-09-13 19:29:00,
2013-09-13 14:30:00,73.2,48.8,30.08,ENE,68,7.0,10.0,42,0.00,,---,0.00,VWS V14.01,2013-09-13 19:30:00,
2013-09-13 14:32:00,73.3,47.5,30.08,East,82,4.0,10.0,40,0.00,,---,0.00,VWS V14.01,2013-09-13 19:32:00,
2013-09-13 14:33:00,73.3,47.5,30.08,ENE,63,4.0,10.0,40,0.00,,---,0.00,VWS V14.01,2013-09-13 19:33:00,
2013-09-13 14:34:00,73.3,48.2,30.08,ENE,68,6.0,10.0,41,0.00,,---,0.00,VWS V14.01,2013-09-13 19:34:00,
2013-09-13 14:35:00,73.2,47.5,30.08,ENE,76,5.0,10.0,40,0.00,,---,0.00,VWS V14.01,2013-09-13 19:35:00,
2013-09-13 14:37:00,73.0,47.9,30.08,NE,49,3.0,10.0,41,0.00,,---,0.00,VWS V14.01,2013-09-13 19:37:00,
2013-09-13 14:39:00,73.0,47.9,30.08,NE,46,7.0,10.0,41,0.00,,---,0.00,VWS V14.01,2013-09-13 19:39:00,
2013-09-13 14:40:00,73.0,48.6,30.08,ENE,57,0.0,10.0,42,0.00,,---,0.00,VWS V14.01,2013-09-13 19:40:00,
2013-09-13 14:41:00,73.0,47.9,30.08,NE,44,7.0,8.0,41,0.00,,---,0.00,VWS V14.01,2013-09-13 19:41:00,
2013-09-13 14:43:00,72.8,47.8,30.08,NE,46,0.0,9.0,41,0.00,,---,0.00,VWS V14.01,2013-09-13 19:43:00,
2013-09-13 14:44:00,72.8,47.8,30.08,NE,49,1.0,9.0,41,0.00,,---,0.00,VWS V14.01,2013-09-13 19:44:00,
2013-09-13 14:45:00,72.8,47.8,30.07,NE,50,5.0,9.0,41,0.00,,---,0.00,VWS V14.01,2013-09-13 19:45:00,
2013-09-13 14:46:00,72.8,49.0,30.07,ENE,64,9.0,10.0,43,0.00,,---,0.00,VWS V14.01,2013-09-13 19:46:00,
2013-09-13 14:48:00,72.7,48.9,30.07,ENE,68,4.0,10.0,43,0.00,,---,0.00,VWS V14.01,2013-09-13 19:48:00,
2013-09-13 14:49:00,72.7,47.7,30.07,ENE,69,4.0,10.0,41,0.00,,---,0.00,VWS V14.01,2013-09-13 19:49:00,
2013-09-13 14:50:00,72.7,48.3,30.07,ENE,73,3.0,10.0,42,0.00,,---,0.00,VWS V14.01,2013-09-13 19:50:00,
2013-09-13 14:51:00,72.7,48.3,30.07,ENE,73,0.0,0.0,42,0.00,,---,0.00,VWS V14.01,2013-09-13 19:51:00,
2013-09-13 14:53:00,72.8,48.4,30.07,ENE,75,5.0,5.0,42,0.00,,---,0.00,VWS V14.01,2013-09-13 19:53:00,
2013-09-13 14:54:00,72.7,47.7,30.07,East,80,6.0,7.0,41,0.00,,---,0.00,VWS V14.01,2013-09-13 19:54:00,
2013-09-13 14:55:00,72.7,47.7,30.07,East,80,3.0,7.0,41,0.00,,---,0.00,VWS V14.01,2013-09-13 19:55:00,
2013-09-13 14:56:00,72.7,48.3,30.07,East,82,4.0,7.0,42,0.00,,---,0.00,VWS V14.01,2013-09-13 19:56:00,
2013-09-13 14:58:00,72.7,49.5,30.07,ENE,57,7.0,7.0,44,0.00,,---,0.00,VWS V14.01,2013-09-13 19:58:00,
2013-09-13 14:59:00,72.7,49.5,30.07,ENE,57,9.0,9.0,44,0.00,,---,0.00,VWS V14.01,2013-09-13 19:59:00,
2013-09-13 15:00:00,72.7,49.5,30.07,NE,50,6.0,9.0,44,0.00,,---,0.00,VWS V14.01,2013-09-13 20:00:00,
2013-09-13 15:02:00,72.7,48.9,30.07,NE,47,5.0,7.0,43,0.00,,---,0.00,VWS V14.01,2013-09-13 20:02:00,
2013-09-13 15:04:00,72.7,48.3,30.07,NE,47,0.0,7.0,42,0.00,,---,0.00,VWS V14.01,2013-09-13 20:04:00,
2013-09-13 15:05:00,72.7,48.3,30.07,NE,47,0.0,7.0,42,0.00,,---,0.00,VWS V14.01,2013-09-13 20:05:00,
2013-09-13 15:07:00,72.8,48.4,30.07,NE,47,0.0,7.0,42,0.00,,---,0.00,VWS V14.01,2013-09-13 20:07:00,
2013-09-13 15:09:00,73.2,50.0,30.07,NNE,24,4.0,7.0,44,0.00,,---,0.00,VWS V14.01,2013-09-13 20:09:00,
2013-09-13 15:10:00,73.3,48.8,30.07,ENE,61,5.0,7.0,42,0.00,,---,0.00,VWS V14.01,2013-09-13 20:10:00,
2013-09-13 15:11:00,73.3,48.8,30.07,ENE,61,4.0,4.0,42,0.00,,---,0.00,VWS V14.01,2013-09-13 20:11:00,
2013-09-13 15:12:00,73.3,48.8,30.07,ENE,61,0.0,4.0,42,0.00,,---,0.00,VWS V14.01,2013-09-13 20:12:00,
2013-09-13 15:14:00,73.5,50.3,30.07,NE,55,6.0,6.0,44,0.00,,---,0.00,VWS V14.01,2013-09-13 20:14:00,
2013-09-13 15:15:00,73.5,49.0,30.06,NE,40,7.0,11.0,42,0.00,,---,0.00,VWS V14.01,2013-09-13 20:15:00,
2013-09-13 15:16:00,73.3,48.8,30.06,NE,46,6.0,11.0,42,0.00,,---,0.00,VWS V14.01,2013-09-13 20:16:00,
2013-09-13 15:18:00,73.3,48.8,30.06,NE,49,8.0,11.0,42,0.00,,---,0.00,VWS V14.01,2013-09-13 20:18:00,
2013-09-13 15:19:00,73.3,49.5,30.06,ENE,76,10.0,11.0,43,0.00,,---,0.00,VWS V14.01,2013-09-13 20:19:00,
2013-09-13 15:20:00,73.3,48.8,30.06,ENE,63,6.0,11.0,42,0.00,,---,0.00,VWS V14.01,2013-09-13 20:20:00,
2013-09-13 15:21:00,73.3,49.5,30.06,ENE,65,7.0,9.0,43,0.00,,---,0.00,VWS V14.01,2013-09-13 20:21:00,
2013-09-13 15:23:00,73.3,50.1,30.06,ENE,64,6.0,9.0,44,0.00,,---,0.00,VWS V14.01,2013-09-13 20:23:00,
2013-09-13 15:24:00,73.3,48.8,30.06,ENE,78,6.0,9.0,42,0.00,,---,0.00,VWS V14.01,2013-09-13 20:24:00,
2013-09-13 15:25:00,73.2,48.8,30.06,ENE,62,4.0,9.0,42,0.00,,---,0.00,VWS V14.01,2013-09-13 20:25:00,
2013-09-13 15:26:00,73.3,50.1,30.06,ENE,57,6.0,9.0,44,0.00,,---,0.00,VWS V14.01,2013-09-13 20:26:00,
2013-09-13 15:28:00,73.3,49.5,30.06,NE,42,9.0,11.0,43,0.00,,---,0.00,VWS V14.01,2013-09-13 20:28:00,
2013-09-13 15:29:00,73.3,50.1,30.06,ENE,74,6.0,11.0,44,0.00,,---,0.00,VWS V14.01,2013-09-13 20:29:00,
2013-09-13 15:30:00,73.2,48.8,30.06,ENE,71,5.0,11.0,42,0.00,,---,0.00,VWS V14.01,2013-09-13 20:30:00,
2013-09-13 15:31:00,73.2,49.4,30.06,NE,53,9.0,10.0,43,0.00,,---,0.00,VWS V14.01,2013-09-13 20:31:00,
2013-09-13 15:33:00,73.2,49.4,30.06,ENE,67,6.0,10.0,43,0.00,,---,0.00,VWS V14.01,2013-09-13 20:33:00,
2013-09-13 15:34:00,73.2,48.8,30.06,NE,53,5.0,10.0,42,0.00,,---,0.00,VWS V14.01,2013-09-13 20:34:00,
2013-09-13 15:35:00,73.2,49.4,30.06,NE,46,10.0,10.0,43,0.00,,---,0.00,VWS V14.01,2013-09-13 20:35:00,
2013-09-13 15:36:00,73.0,48.6,30.06,ENE,59,7.0,10.0,42,0.00,,---,0.00,VWS V14.01,2013-09-13 20:36:00,
2013-09-13 15:38:00,73.0,47.9,30.06,ENE,62,6.0,10.0,41,0.00,,---,0.00,VWS V14.01,2013-09-13 20:38:00,
2013-09-13 15:39:00,72.8,47.8,30.06,NE,53,4.0,10.0,41,0.00,,---,0.00,VWS V14.01,2013-09-13 20:39:00,
2013-09-13 15:40:00,73.0,48.6,30.06,ENE,57,6.0,10.0,42,0.00,,---,0.00,VWS V14.01,2013-09-13 20:40:00,
2013-09-13 15:42:00,73.2,49.4,30.06,NE,44,0.0,5.0,43,0.00,,---,0.00,VWS V14.01,2013-09-13 20:42:00,
2013-09-13 15:44:00,73.2,50.0,30.06,ENE,61,7.0,8.0,44,0.00,,---,0.00,VWS V14.01,2013-09-13 20:44:00,
2013-09-13 15:45:00,73.2,50.0,30.06,ENE,70,7.0,8.0,44,0.00,,---,0.00,VWS V14.01,2013-09-13 20:45:00,
2013-09-13 15:47:00,73.0,49.2,30.06,NE,44,7.0,8.0,43,0.00,,---,0.00,VWS V14.01,2013-09-13 20:47:00,
2013-09-13 15:49:00,72.8,49.6,30.06,NNE,31,3.0,8.0,44,0.00,,---,0.00,VWS V14.01,2013-09-13 20:49:00,
2013-09-13 15:50:00,72.8,49.6,30.06,NNE,28,2.0,8.0,44,0.00,,---,0.00,VWS V14.01,2013-09-13 20:50:00,
2013-09-13 15:52:00,72.8,49.6,30.06,ENE,57,0.0,5.0,44,0.00,,---,0.00,VWS V14.01,2013-09-13 20:52:00,
2013-09-13 15:54:00,73.0,50.4,30.06,NE,55,4.0,7.0,45,0.00,,---,0.00,VWS V14.01,2013-09-13 20:54:00,
2013-09-13 15:55:00,73.0,50.4,30.06,NE,55,0.0,7.0,45,0.00,,---,0.00,VWS V14.01,2013-09-13 20:55:00,
2013-09-13 15:57:00,73.2,49.4,30.06,NNE,32,1.0,7.0,43,0.00,,---,0.00,VWS V14.01,2013-09-13 20:57:00,
2013-09-13 15:59:00,73.2,49.4,30.06,NE,47,4.0,7.0,43,0.00,,---,0.00,VWS V14.01,2013-09-13 20:59:00,
2013-09-13 16:00:00,73.2,49.4,30.05,North,9,2.0,7.0,43,0.00,,---,0.00,VWS V14.01,2013-09-13 21:00:00,
2013-09-13 16:03:00,73.2,49.4,30.05,NE,43,0.0,5.0,43,0.00,,---,0.00,VWS V14.01,2013-09-13 21:03:00,
2013-09-13 16:04:00,73.2,49.4,30.05,NE,53,4.0,5.0,43,0.00,,---,0.00,VWS V14.01,2013-09-13 21:04:00,
2013-09-13 16:05:00,73.2,48.8,30.05,ENE,57,7.0,8.0,42,0.00,,---,0.00,VWS V14.01,2013-09-13 21:05:00,
2013-09-13 16:08:00,73.0,49.2,30.05,ENE,57,4.0,8.0,43,0.00,,---,0.00,VWS V14.01,2013-09-13 21:08:00,
2013-09-13 16:09:00,73.0,49.2,30.05,ENE,59,7.0,10.0,43,0.00,,---,0.00,VWS V14.01,2013-09-13 21:09:00,
2013-09-13 16:10:00,73.0,49.2,30.05,ENE,59,8.0,10.0,43,0.00,,---,0.00,VWS V14.01,2013-09-13 21:10:00,
2013-09-13 16:11:00,73.0,49.2,30.05,ENE,59,9.0,9.0,43,0.00,,---,0.00,VWS V14.01,2013-09-13 21:11:00,
2013-09-13 16:13:00,73.0,48.6,30.05,ENE,67,7.0,9.0,42,0.00,,---,0.00,VWS V14.01,2013-09-13 21:13:00,
2013-09-13 16:14:00,72.8,49.0,30.05,ENE,73,6.0,9.0,43,0.00,,---,0.00,VWS V14.01,2013-09-13 21:14:00,
2013-09-13 16:15:00,72.8,49.0,30.05,ENE,68,6.0,9.0,43,0.00,,---,0.00,VWS V14.01,2013-09-13 21:15:00,
2013-09-13 16:16:00,72.8,49.0,30.05,ENE,69,7.0,9.0,43,0.00,,---,0.00,VWS V14.01,2013-09-13 21:16:00,
2013-09-13 16:19:00,73.0,49.2,30.05,ENE,63,7.0,9.0,43,0.00,,---,0.00,VWS V14.01,2013-09-13 21:19:00,
2013-09-13 16:20:00,73.0,49.2,30.05,ENE,57,6.0,9.0,43,0.00,,---,0.00,VWS V14.01,2013-09-13 21:20:00,
2013-09-13 16:21:00,73.0,49.2,30.05,NE,51,5.0,5.0,43,0.00,,---,0.00,VWS V14.01,2013-09-13 21:21:00,
2013-09-13 16:24:00,73.0,48.6,30.05,NE,51,6.0,9.0,42,0.00,,---,0.00,VWS V14.01,2013-09-13 21:24:00,
2013-09-13 16:25:00,73.0,47.9,30.05,NE,44,5.0,9.0,41,0.00,,---,0.00,VWS V14.01,2013-09-13 21:25:00,
2013-09-13 16:26:00,73.2,48.8,30.05,NE,52,5.0,9.0,42,0.00,,---,0.00,VWS V14.01,2013-09-13 21:26:00,
2013-09-13 16:29:00,73.5,48.4,30.05,ENE,63,3.0,9.0,41,0.00,,---,0.00,VWS V14.01,2013-09-13 21:29:00,
2013-09-13 16:30:00,73.7,50.5,30.04,ENE,61,7.0,9.0,44,0.00,,---,0.00,VWS V14.01,2013-09-13 21:30:00,
2013-09-13 16:31:00,73.9,49.4,30.04,NE,50,6.0,7.0,42,0.00,,---,0.00,VWS V14.01,2013-09-13 21:31:00,
2013-09-13 16:34:00,73.9,49.4,30.04,NE,42,4.0,9.0,42,0.00,,---,0.00,VWS V14.01,2013-09-13 21:34:00,
2013-09-13 16:35:00,73.9,49.4,30.04,ENE,61,5.0,9.0,42,0.00,,---,0.00,VWS V14.01,2013-09-13 21:35:00,
2013-09-13 16:36:00,73.9,50.0,30.04,NE,49,6.0,9.0,43,0.00,,---,0.00,VWS V14.01,2013-09-13 21:36:00,
2013-09-13 16:37:00,73.9,49.4,30.04,NE,49,4.0,9.0,42,0.00,,---,0.00,VWS V14.01,2013-09-13 21:37:00,
2013-09-13 16:39:00,73.5,49.7,30.04,NE,42,5.0,9.0,43,0.00,,---,0.00,VWS V14.01,2013-09-13 21:39:00,
2013-09-13 16:40:00,73.5,49.7,30.04,NE,53,6.0,9.0,43,0.00,,---,0.00,VWS V14.01,2013-09-13 21:40:00,
2013-09-13 16:41:00,73.5,49.0,30.04,NE,53,5.0,5.0,42,0.00,,---,0.00,VWS V14.01,2013-09-13 21:41:00,
2013-09-13 16:42:00,73.3,48.8,30.04,NE,50,4.0,6.0,42,0.00,,---,0.00,VWS V14.01,2013-09-13 21:42:00,
2013-09-13 16:44:00,73.3,50.1,30.04,ENE,57,4.0,7.0,44,0.00,,---,0.00,VWS V14.01,2013-09-13 21:44:00,
2013-09-13 16:45:00,73.3,50.7,30.04,ENE,57,5.0,7.0,45,0.00,,---,0.00,VWS V14.01,2013-09-13 21:45:00,
2013-09-13 16:46:00,73.3,49.5,30.04,ENE,59,6.0,7.0,43,0.00,,---,0.00,VWS V14.01,2013-09-13 21:46:00,
2013-09-13 16:47:00,73.5,49.7,30.04,NE,50,4.0,7.0,43,0.00,,---,0.00,VWS V14.01,2013-09-13 21:47:00,
2013-09-13 16:48:00,73.5,49.7,30.04,East,88,6.0,7.0,43,0.00,,---,0.00,VWS V14.01,2013-09-13 21:48:00,
2013-09-13 16:49:00,73.7,51.1,30.04,NE,49,6.0,9.0,45,0.00,,---,0.00,VWS V14.01,2013-09-13 21:49:00,
2013-09-13 16:50:00,73.7,49.2,30.04,NE,43,6.0,10.0,42,0.00,,---,0.00,VWS V14.01,2013-09-13 21:50:00,
2013-09-13 16:51:00,73.9,49.4,30.04,ENE,57,5.0,5.0,42,0.00,,---,0.00,VWS V14.01,2013-09-13 21:51:00,
2013-09-13 16:52:00,73.9,49.4,30.04,NNE,31,1.0,5.0,42,0.00,,---,0.00,VWS V14.01,2013-09-13 21:52:00,
2013-09-13 16:53:00,74.0,48.8,30.04,NE,49,5.0,6.0,41,0.00,,---,0.00,VWS V14.01,2013-09-13 21:53:00,
2013-09-13 16:54:00,74.0,48.8,30.04,NE,49,10.0,11.0,41,0.00,,---,0.00,VWS V14.01,2013-09-13 21:54:00,
2013-09-13 16:55:00,74.0,49.5,30.04,NE,50,7.0,11.0,42,0.00,,---,0.00,VWS V14.01,2013-09-13 21:55:00,
2013-09-13 16:56:00,74.2,49.0,30.04,NNE,24,7.0,11.0,41,0.00,,---,0.00,VWS V14.01,2013-09-13 21:56:00,
2013-09-13 16:57:00,74.2,50.3,30.04,NE,54,5.0,11.0,43,0.00,,---,0.00,VWS V14.01,2013-09-13 21:57:00,
2013-09-13 16:58:00,74.2,48.3,30.04,NE,51,5.0,11.0,40,0.00,,---,0.00,VWS V14.01,2013-09-13 21:58:00,
2013-09-13 16:59:00,74.0,48.2,30.04,NE,53,4.0,11.0,40,0.00,,---,0.00,VWS V14.01,2013-09-13 21:59:00,
2013-09-13 17:00:00,74.0,50.1,30.04,ENE,62,7.0,11.0,43,0.00,,---,0.00,VWS V14.01,2013-09-13 22:00:00,
2013-09-13 17:01:00,74.0,49.5,30.04,ENE,69,7.0,7.0,42,0.00,,---,0.00,VWS V14.01,2013-09-13 22:01:00,
2013-09-13 17:02:00,74.0,50.1,30.04,ENE,67,7.0,8.0,43,0.00,,---,0.00,VWS V14.01,2013-09-13 22:02:00,
2013-09-13 17:04:00,74.2,50.3,30.04,NNE,28,1.0,9.0,43,0.00,,---,0.00,VWS V14.01,2013-09-13 22:04:00,
2013-09-13 17:05:00,74.2,48.3,30.04,North,5,4.0,9.0,40,0.00,,---,0.00,VWS V14.01,2013-09-13 22:05:00,
2013-09-13 17:06:00,74.2,48.3,30.04,North,9,0.0,9.0,40,0.00,,---,0.00,VWS V14.01,2013-09-13 22:06:00,
2013-09-13 17:07:00,74.4,48.5,30.04,NNE,20,3.0,9.0,40,0.00,,---,0.00,VWS V14.01,2013-09-13 22:07:00,
2013-09-13 17:09:00,74.4,48.5,30.04,ENE,60,5.0,9.0,40,0.00,,---,0.00,VWS V14.01,2013-09-13 22:09:00,
2013-09-13 17:10:00,74.4,48.5,30.04,NE,47,6.0,10.0,40,0.00,,---,0.00,VWS V14.01,2013-09-13 22:10:00,
2013-09-13 17:11:00,74.2,49.0,30.04,NE,51,4.0,5.0,41,0.00,,---,0.00,VWS V14.01,2013-09-13 22:11:00,
2013-09-13 17:12:00,74.4,49.8,30.04,NE,53,9.0,9.0,42,0.00,,---,0.00,VWS V14.01,2013-09-13 22:12:00,
2013-09-13 17:14:00,74.4,49.2,30.04,NE,43,8.0,10.0,41,0.00,,---,0.00,VWS V14.01,2013-09-13 22:14:00,
2013-09-13 17:15:00,74.4,50.5,30.03,ENE,57,5.0,10.0,43,0.00,,---,0.00,VWS V14.01,2013-09-13 22:15:00,
2013-09-13 17:16:00,74.2,50.3,30.03,ENE,58,5.0,10.0,43,0.00,,---,0.00,VWS V14.01,2013-09-13 22:16:00,
2013-09-13 17:17:00,74.2,50.3,30.03,NE,49,12.0,13.0,43,0.00,,---,0.00,VWS V14.01,2013-09-13 22:17:00,
2013-09-13 17:19:00,74.0,49.5,30.03,ENE,57,12.0,13.0,42,0.00,,---,0.00,VWS V14.01,2013-09-13 22:19:00,
2013-09-13 17:20:00,74.0,50.1,30.03,NNE,24,5.0,13.0,43,0.00,,---,0.00,VWS V14.01,2013-09-13 22:20:00,
2013-09-13 17:21:00,74.2,50.3,30.03,NE,49,5.0,5.0,43,0.00,,---,0.00,VWS V14.01,2013-09-13 22:21:00,
2013-09-13 17:22:00,74.2,49.0,30.03,NE,46,10.0,12.0,41,0.00,,---,0.00,VWS V14.01,2013-09-13 22:22:00,
2013-09-13 17:24:00,74.0,48.2,30.03,ENE,57,11.0,12.0,40,0.00,,---,0.00,VWS V14.01,2013-09-13 22:24:00,
2013-09-13 17:25:00,74.0,49.5,30.03,NE,54,10.0,12.0,42,0.00,,---,0.00,VWS V14.01,2013-09-13 22:25:00,
2013-09-13 17:26:00,73.9,48.1,30.03,NE,50,11.0,12.0,40,0.00,,---,0.00,VWS V14.01,2013-09-13 22:26:00,
2013-09-13 17:27:00,73.9,48.7,30.03,ENE,61,6.0,12.0,41,0.00,,---,0.00,VWS V14.01,2013-09-13 22:27:00,
2013-09-13 17:30:00,73.9,48.7,30.03,ENE,75,7.0,12.0,41,0.00,,---,0.00,VWS V14.01,2013-09-13 22:30:00,
2013-09-13 17:31:00,73.7,47.9,30.03,ENE,62,6.0,8.0,40,0.00,,---,0.00,VWS V14.01,2013-09-13 22:31:00,
2013-09-13 17:32:00,73.7,48.6,30.03,ENE,70,7.0,9.0,41,0.00,,---,0.00,VWS V14.01,2013-09-13 22:32:00,
2013-09-13 17:35:00,73.5,48.4,30.03,ENE,62,4.0,9.0,41,0.00,,---,0.00,VWS V14.01,2013-09-13 22:35:00,
2013-09-13 17:36:00,73.5,48.4,30.03,NE,46,6.0,9.0,41,0.00,,---,0.00,VWS V14.01,2013-09-13 22:36:00,
2013-09-13 17:38:00,73.5,49.7,30.03,NE,54,7.0,9.0,43,0.00,,---,0.00,VWS V14.01,2013-09-13 22:38:00,
2013-09-13 17:40:00,73.3,50.1,30.03,ENE,61,10.0,10.0,44,0.00,,---,0.00,VWS V14.01,2013-09-13 22:40:00,
2013-09-13 17:41:00,73.3,50.1,30.03,ENE,61,9.0,9.0,44,0.00,,---,0.00,VWS V14.01,2013-09-13 22:41:00,
2013-09-13 17:43:00,73.2,48.8,30.03,ENE,58,6.0,9.0,42,0.00,,---,0.00,VWS V14.01,2013-09-13 22:43:00,
2013-09-13 17:45:00,73.0,49.8,30.02,East,83,6.0,9.0,44,0.00,,---,0.00,VWS V14.01,2013-09-13 22:45:00,
2013-09-13 17:46:00,73.2,50.0,30.02,East,84,7.0,9.0,44,0.00,,---,0.00,VWS V14.01,2013-09-13 22:46:00,
2013-09-13 17:48:00,73.2,49.4,30.02,East,92,4.0,9.0,43,0.00,,---,0.00,VWS V14.01,2013-09-13 22:48:00,
2013-09-13 17:50:00,73.3,49.5,30.02,East,85,5.0,9.0,43,0.00,,---,0.00,VWS V14.01,2013-09-13 22:50:00,
2013-09-13 17:51:00,73.3,49.5,30.02,East,88,7.0,8.0,43,0.00,,---,0.00,VWS V14.01,2013-09-13 22:51:00,
2013-09-13 17:53:00,73.5,49.7,30.02,ENE,71,6.0,8.0,43,0.00,,---,0.00,VWS V14.01,2013-09-13 22:53:00,
2013-09-13 17:55:00,73.3,49.5,30.02,ENE,61,6.0,9.0,43,0.00,,---,0.00,VWS V14.01,2013-09-13 22:55:00,
2013-09-13 17:56:00,73.3,50.1,30.02,ENE,63,6.0,9.0,44,0.00,,---,0.00,VWS V14.01,2013-09-13 22:56:00,
2013-09-13 17:58:00,73.5,51.5,30.02,NE,53,5.0,9.0,46,0.00,,---,0.00,VWS V14.01,2013-09-13 22:58:00,
2013-09-13 18:00:00,73.5,49.7,30.02,ENE,63,5.0,9.0,43,0.00,,---,0.00,VWS V14.01,2013-09-13 23:00:00,
2013-09-13 18:01:00,73.5,50.3,30.02,NE,45,5.0,6.0,44,0.00,,---,0.00,VWS V14.01,2013-09-13 23:01:00,
2013-09-13 18:03:00,73.3,50.7,30.02,ENE,74,5.0,6.0,45,0.00,,---,0.00,VWS V14.01,2013-09-13 23:03:00,
2013-09-13 18:05:00,73.3,52.5,30.02,ENE,61,7.0,8.0,48,0.00,,---,0.00,VWS V14.01,2013-09-13 23:05:00,
2013-09-13 18:06:00,73.2,50.6,30.02,ENE,75,6.0,8.0,45,0.00,,---,0.00,VWS V14.01,2013-09-13 23:06:00,
2013-09-13 18:08:00,73.0,49.2,30.02,ENE,70,5.0,8.0,43,0.00,,---,0.00,VWS V14.01,2013-09-13 23:08:00,
2013-09-13 18:10:00,72.8,49.0,30.02,ENE,71,4.0,8.0,43,0.00,,---,0.00,VWS V14.01,2013-09-13 23:10:00,
2013-09-13 18:11:00,72.8,49.6,30.02,ENE,71,5.0,6.0,44,0.00,,---,0.00,VWS V14.01,2013-09-13 23:11:00,
2013-09-13 18:13:00,73.0,49.2,30.02,NE,55,7.0,7.0,43,0.00,,---,0.00,VWS V14.01,2013-09-13 23:13:00,
2013-09-13 18:15:00,73.2,48.8,30.02,NE,55,5.0,7.0,42,0.00,,---,0.00,VWS V14.01,2013-09-13 23:15:00,
2013-09-13 18:16:00,73.2,49.4,30.02,NE,56,4.0,7.0,43,0.00,,---,0.00,VWS V14.01,2013-09-13 23:16:00,
2013-09-13 18:17:00,73.2,49.4,30.02,NE,56,3.0,7.0,43,0.00,,---,0.00,VWS V14.01,2013-09-13 23:17:00,
2013-09-13 18:18:00,73.3,49.5,30.02,East,81,5.0,7.0,43,0.00,,---,0.00,VWS V14.01,2013-09-13 23:18:00,
2013-09-13 18:20:00,73.5,49.0,30.02,ENE,71,4.0,8.0,42,0.00,,---,0.00,VWS V14.01,2013-09-13 23:20:00,
2013-09-13 18:21:00,73.7,48.6,30.02,ENE,71,5.0,7.0,41,0.00,,---,0.00,VWS V14.01,2013-09-13 23:21:00,
2013-09-13 18:22:00,73.7,48.6,30.02,ENE,71,5.0,7.0,41,0.00,,---,0.00,VWS V14.01,2013-09-13 23:22:00,
2013-09-13 18:23:00,73.7,51.1,30.02,ENE,65,4.0,7.0,45,0.00,,---,0.00,VWS V14.01,2013-09-13 23:23:00,
2013-09-13 18:25:00,73.5,50.9,30.02,NE,56,4.0,7.0,45,0.00,,---,0.00,VWS V14.01,2013-09-13 23:25:00,
2013-09-13 18:26:00,73.5,50.3,30.02,ENE,61,7.0,7.0,44,0.00,,---,0.00,VWS V14.01,2013-09-13 23:26:00,
2013-09-13 18:27:00,73.5,50.3,30.02,ENE,61,6.0,7.0,44,0.00,,---,0.00,VWS V14.01,2013-09-13 23:27:00,
2013-09-13 18:29:00,73.3,51.3,30.02,ENE,63,6.0,7.0,46,0.00,,---,0.00,VWS V14.01,2013-09-13 23:29:00,
2013-09-13 18:30:00,73.3,50.1,30.02,ENE,63,5.0,7.0,44,0.00,,---,0.00,VWS V14.01,2013-09-13 23:30:00,
2013-09-13 18:31:00,73.2,50.0,30.02,ENE,63,5.0,6.0,44,0.00,,---,0.00,VWS V14.01,2013-09-13 23:31:00,
2013-09-13 18:32:00,73.2,49.4,30.02,ENE,63,5.0,7.0,43,0.00,,---,0.00,VWS V14.01,2013-09-13 23:32:00,
2013-09-13 18:34:00,73.2,50.0,30.02,ENE,63,5.0,7.0,44,0.00,,---,0.00,VWS V14.01,2013-09-13 23:34:00,
2013-09-13 18:35:00,73.2,50.6,30.02,ENE,63,6.0,7.0,45,0.00,,---,0.00,VWS V14.01,2013-09-13 23:35:00,
2013-09-13 18:36:00,73.0,50.4,30.02,ENE,63,6.0,7.0,45,0.00,,---,0.00,VWS V14.01,2013-09-13 23:36:00,
2013-09-13 18:37:00,73.0,51.0,30.02,ENE,63,6.0,7.0,46,0.00,,---,0.00,VWS V14.01,2013-09-13 23:37:00,
2013-09-13 18:38:00,73.0,51.6,30.02,ENE,63,4.0,7.0,47,0.00,,---,0.00,VWS V14.01,2013-09-13 23:38:00,
2013-09-13 18:39:00,73.0,52.2,30.02,ENE,65,5.0,7.0,48,0.00,,---,0.00,VWS V14.01,2013-09-13 23:39:00,
2013-09-13 18:40:00,72.8,52.0,30.02,ENE,70,4.0,7.0,48,0.00,,---,0.00,VWS V14.01,2013-09-13 23:40:00,
2013-09-13 18:41:00,72.7,51.9,30.02,ENE,71,6.0,6.0,48,0.00,,---,0.00,VWS V14.01,2013-09-13 23:41:00,
2013-09-13 18:42:00,72.7,51.9,30.02,ENE,71,6.0,6.0,48,0.00,,---,0.00,VWS V14.01,2013-09-13 23:42:00,
2013-09-13 18:44:00,72.5,51.7,30.02,ENE,72,4.0,6.0,48,0.00,,---,0.00,VWS V14.01,2013-09-13 23:44:00,
2013-09-13 18:45:00,72.3,51.5,30.01,ENE,72,4.0,6.0,48,0.00,,---,0.00,VWS V14.01,2013-09-13 23:45:00,
2013-09-13 18:46:00,72.3,51.5,30.01,ENE,72,4.0,6.0,48,0.00,,---,0.00,VWS V14.01,2013-09-13 23:46:00,
2013-09-13 18:47:00,72.3,51.5,30.01,ENE,72,4.0,6.0,48,0.00,,---,0.00,VWS V14.01,2013-09-13 23:47:00,
2013-09-13 18:49:00,72.1,51.3,30.01,ENE,73,4.0,6.0,48,0.00,,---,0.00,VWS V14.01,2013-09-13 23:49:00,
2013-09-13 18:50:00,72.1,51.9,30.01,ENE,73,3.0,6.0,49,0.00,,---,0.00,VWS V14.01,2013-09-13 23:50:00,
2013-09-13 18:51:00,72.1,51.9,30.01,ENE,73,4.0,4.0,49,0.00,,---,0.00,VWS V14.01,2013-09-13 23:51:00,
2013-09-13 18:52:00,72.0,52.4,30.01,ENE,73,4.0,4.0,50,0.00,,---,0.00,VWS V14.01,2013-09-13 23:52:00,
2013-09-13 18:54:00,71.8,52.7,30.01,ENE,73,4.0,4.0,51,0.00,,---,0.00,VWS V14.01,2013-09-13 23:54:00,
2013-09-13 18:55:00,71.8,52.7,30.01,ENE,73,4.0,4.0,51,0.00,,---,0.00,VWS V14.01,2013-09-13 23:55:00,
2013-09-13 18:56:00,71.8,52.7,30.01,ENE,73,4.0,4.0,51,0.00,,---,0.00,VWS V14.01,2013-09-13 23:56:00,
2013-09-13 18:58:00,71.6,53.1,30.01,ENE,73,4.0,5.0,52,0.00,,---,0.00,VWS V14.01,2013-09-13 23:58:00,
2013-09-13 18:59:00,71.5,53.5,30.01,ENE,73,4.0,5.0,53,0.00,,---,0.00,VWS V14.01,2013-09-13 23:59:00,
2013-09-13 19:00:00,71.5,53.0,30.00,ENE,73,5.0,5.0,52,0.00,,---,0.00,VWS V14.01,2013-09-14 00:00:00,
2013-09-13 19:01:00,71.5,53.0,30.00,ENE,73,5.0,5.0,52,0.00,,---,0.00,VWS V14.01,2013-09-14 00:01:00,
2013-09-13 19:03:00,71.3,52.8,30.00,ENE,73,4.0,5.0,52,0.00,,---,0.00,VWS V14.01,2013-09-14 00:03:00,
2013-09-13 19:05:00,71.1,52.6,30.00,ENE,73,4.0,5.0,52,0.00,,---,0.00,VWS V14.01,2013-09-14 00:05:00,
2013-09-13 19:06:00,71.1,52.6,30.00,ENE,73,4.0,5.0,52,0.00,,---,0.00,VWS V14.01,2013-09-14 00:06:00,
2013-09-13 19:08:00,70.8,52.8,30.00,ENE,73,4.0,5.0,53,0.00,,---,0.00,VWS V14.01,2013-09-14 00:08:00,
2013-09-13 19:10:00,70.8,52.3,30.00,ENE,73,4.0,5.0,52,0.00,,---,0.00,VWS V14.01,2013-09-14 00:10:00,
2013-09-13 19:11:00,70.8,52.3,30.00,ENE,73,4.0,4.0,52,0.00,,---,0.00,VWS V14.01,2013-09-14 00:11:00,
2013-09-13 19:14:00,70.8,51.8,30.00,ENE,73,4.0,4.0,51,0.00,,---,0.00,VWS V14.01,2013-09-14 00:14:00,
2013-09-13 19:15:00,70.8,52.3,30.01,ENE,73,4.0,4.0,52,0.00,,---,0.00,VWS V14.01,2013-09-14 00:15:00,
2013-09-13 19:16:00,70.8,52.3,30.01,ENE,73,4.0,4.0,52,0.00,,---,0.00,VWS V14.01,2013-09-14 00:16:00,
2013-09-13 19:19:00,70.6,52.7,30.01,ENE,73,4.0,5.0,53,0.00,,---,0.00,VWS V14.01,2013-09-14 00:19:00,
2013-09-13 19:20:00,70.6,52.7,30.01,ENE,73,4.0,5.0,53,0.00,,---,0.00,VWS V14.01,2013-09-14 00:20:00,
2013-09-13 19:21:00,70.4,53.0,30.01,ENE,73,3.0,4.0,54,0.00,,---,0.00,VWS V14.01,2013-09-14 00:21:00,
2013-09-13 19:22:00,70.4,53.0,30.01,ENE,73,4.0,4.0,54,0.00,,---,0.00,VWS V14.01,2013-09-14 00:22:00,
2013-09-13 19:24:00,70.3,52.9,30.01,ENE,73,3.0,4.0,54,0.00,,---,0.00,VWS V14.01,2013-09-14 00:24:00,
2013-09-13 19:25:00,70.1,52.7,30.01,ENE,73,4.0,4.0,54,0.00,,---,0.00,VWS V14.01,2013-09-14 00:25:00,
2013-09-13 19:26:00,70.1,52.7,30.01,ENE,73,4.0,4.0,54,0.00,,---,0.00,VWS V14.01,2013-09-14 00:26:00,
2013-09-13 19:27:00,70.1,52.7,30.01,ENE,73,3.0,4.0,54,0.00,,---,0.00,VWS V14.01,2013-09-14 00:27:00,
2013-09-13 19:29:00,70.1,52.7,30.01,ENE,73,5.0,6.0,54,0.00,,---,0.00,VWS V14.01,2013-09-14 00:29:00,
2013-09-13 19:31:00,70.1,52.7,30.01,ENE,73,5.0,5.0,54,0.00,,---,0.00,VWS V14.01,2013-09-14 00:31:00,
2013-09-13 19:32:00,70.1,53.2,30.01,ENE,73,5.0,6.0,55,0.00,,---,0.00,VWS V14.01,2013-09-14 00:32:00,
2013-09-13 19:35:00,69.9,53.5,30.01,ENE,73,4.0,6.0,56,0.00,,---,0.00,VWS V14.01,2013-09-14 00:35:00,
2013-09-13 19:36:00,69.8,52.9,30.01,ENE,73,4.0,6.0,55,0.00,,---,0.00,VWS V14.01,2013-09-14 00:36:00,
2013-09-13 19:37:00,69.8,52.9,30.01,ENE,73,4.0,6.0,55,0.00,,---,0.00,VWS V14.01,2013-09-14 00:37:00,
2013-09-13 19:38:00,69.8,53.4,30.01,ENE,73,5.0,6.0,56,0.00,,---,0.00,VWS V14.01,2013-09-14 00:38:00,
2013-09-13 19:40:00,69.6,53.7,30.01,ENE,73,4.0,6.0,57,0.00,,---,0.00,VWS V14.01,2013-09-14 00:40:00,
2013-09-13 19:41:00,69.6,54.2,30.01,ENE,73,5.0,5.0,58,0.00,,---,0.00,VWS V14.01,2013-09-14 00:41:00,
2013-09-13 19:42:00,69.4,54.0,30.01,ENE,73,5.0,5.0,58,0.00,,---,0.00,VWS V14.01,2013-09-14 00:42:00,
2013-09-13 19:43:00,69.4,54.0,30.01,ENE,73,4.0,5.0,58,0.00,,---,0.00,VWS V14.01,2013-09-14 00:43:00,
2013-09-13 19:45:00,69.1,54.2,30.01,ENE,73,5.0,5.0,59,0.00,,---,0.00,VWS V14.01,2013-09-14 00:45:00,
2013-09-13 19:46:00,68.9,54.0,30.01,ENE,73,5.0,5.0,59,0.00,,---,0.00,VWS V14.01,2013-09-14 00:46:00,
2013-09-13 19:47:00,68.9,54.5,30.01,ENE,73,5.0,5.0,60,0.00,,---,0.00,VWS V14.01,2013-09-14 00:47:00,
2013-09-13 19:48:00,68.9,54.5,30.01,ENE,73,4.0,5.0,60,0.00,,---,0.00,VWS V14.01,2013-09-14 00:48:00,
2013-09-13 19:50:00,68.6,55.5,30.01,ENE,73,5.0,5.0,63,0.00,,---,0.00,VWS V14.01,2013-09-14 00:50:00,
2013-09-13 19:51:00,68.4,55.3,30.01,ENE,67,6.0,6.0,63,0.00,,---,0.00,VWS V14.01,2013-09-14 00:51:00,
2013-09-13 19:52:00,68.3,55.2,30.01,ENE,57,6.0,6.0,63,0.00,,---,0.00,VWS V14.01,2013-09-14 00:52:00,
2013-09-13 19:53:00,68.1,55.5,30.01,NE,56,5.0,10.0,64,0.00,,---,0.00,VWS V14.01,2013-09-14 00:53:00,
2013-09-13 19:55:00,67.9,54.8,30.01,ENE,65,6.0,10.0,63,0.00,,---,0.00,VWS V14.01,2013-09-14 00:55:00,
2013-09-13 19:56:00,67.9,54.4,30.01,ENE,65,6.0,10.0,62,0.00,,---,0.00,VWS V14.01,2013-09-14 00:56:00,
2013-09-13 19:57:00,67.9,54.4,30.01,ENE,65,7.0,10.0,62,0.00,,---,0.00,VWS V14.01,2013-09-14 00:57:00,
2013-09-13 19:58:00,67.9,54.4,30.01,ENE,69,5.0,10.0,62,0.00,,---,0.00,VWS V14.01,2013-09-14 00:58:00,
2013-09-13 20:00:00,67.9,54.4,30.01,ENE,70,6.0,10.0,62,0.00,,---,0.00,VWS V14.01,2013-09-14 01:00:00,
2013-09-13 20:01:00,67.9,54.4,30.01,ENE,69,7.0,7.0,62,0.00,,---,0.00,VWS V14.01,2013-09-14 01:01:00,
2013-09-13 20:02:00,67.8,54.3,30.01,ENE,69,5.0,7.0,62,0.00,,---,0.00,VWS V14.01,2013-09-14 01:02:00,
2013-09-13 20:03:00,67.8,54.3,30.01,ENE,67,6.0,7.0,62,0.00,,---,0.00,VWS V14.01,2013-09-14 01:03:00,
2013-09-13 20:06:00,67.6,54.6,30.01,ENE,68,6.0,7.0,63,0.00,,---,0.00,VWS V14.01,2013-09-14 01:06:00,
2013-09-13 20:07:00,67.6,54.6,30.01,ENE,68,6.0,7.0,63,0.00,,---,0.00,VWS V14.01,2013-09-14 01:07:00,
2013-09-13 20:08:00,67.4,54.8,30.01,ENE,68,6.0,7.0,64,0.00,,---,0.00,VWS V14.01,2013-09-14 01:08:00,
2013-09-13 20:11:00,67.1,55.0,30.01,ENE,68,5.0,5.0,65,0.00,,---,0.00,VWS V14.01,2013-09-14 01:11:00,
2013-09-13 20:12:00,67.1,55.0,30.01,ENE,68,5.0,6.0,65,0.00,,---,0.00,VWS V14.01,2013-09-14 01:12:00,
2013-09-13 20:13:00,66.9,54.8,30.01,ENE,68,4.0,6.0,65,0.00,,---,0.00,VWS V14.01,2013-09-14 01:13:00,
2013-09-13 20:16:00,66.8,54.7,30.01,ENE,68,4.0,6.0,65,0.00,,---,0.00,VWS V14.01,2013-09-14 01:16:00,
2013-09-13 20:17:00,66.8,54.7,30.01,ENE,68,4.0,6.0,65,0.00,,---,0.00,VWS V14.01,2013-09-14 01:17:00,
2013-09-13 20:18:00,66.6,54.9,30.01,ENE,67,4.0,6.0,66,0.00,,---,0.00,VWS V14.01,2013-09-14 01:18:00,
2013-09-13 20:22:00,66.4,54.7,30.01,ENE,64,5.0,5.0,66,0.00,,---,0.00,VWS V14.01,2013-09-14 01:22:00,
2013-09-13 20:24:00,66.3,54.6,30.01,ENE,63,4.0,6.0,66,0.00,,---,0.00,VWS V14.01,2013-09-14 01:24:00,
2013-09-13 20:27:00,66.3,54.6,30.01,NE,55,5.0,6.0,66,0.00,,---,0.00,VWS V14.01,2013-09-14 01:27:00,
2013-09-13 20:29:00,66.3,54.6,30.01,NE,55,5.0,6.0,66,0.00,,---,0.00,VWS V14.01,2013-09-14 01:29:00,
2013-09-13 20:32:00,66.3,54.6,30.02,NE,55,4.0,5.0,66,0.00,,---,0.00,VWS V14.01,2013-09-14 01:32:00,
2013-09-13 20:33:00,66.3,54.6,30.02,NE,55,4.0,5.0,66,0.00,,---,0.00,VWS V14.01,2013-09-14 01:33:00,
2013-09-13 20:34:00,66.3,54.6,30.02,NE,55,4.0,5.0,66,0.00,,---,0.00,VWS V14.01,2013-09-14 01:34:00,
2013-09-13 20:37:00,66.3,54.2,30.02,NE,55,4.0,5.0,65,0.00,,---,0.00,VWS V14.01,2013-09-14 01:37:00,
2013-09-13 20:38:00,66.3,54.2,30.02,NE,55,4.0,5.0,65,0.00,,---,0.00,VWS V14.01,2013-09-14 01:38:00,
2013-09-13 20:39:00,66.3,54.2,30.02,NE,55,4.0,5.0,65,0.00,,---,0.00,VWS V14.01,2013-09-14 01:39:00,
2013-09-13 20:42:00,66.3,54.2,30.02,NE,55,4.0,5.0,65,0.00,,---,0.00,VWS V14.01,2013-09-14 01:42:00,
2013-09-13 20:43:00,66.3,55.8,30.02,NE,55,5.0,5.0,69,0.00,,---,0.00,VWS V14.01,2013-09-14 01:43:00,
2013-09-13 20:44:00,66.3,54.2,30.02,NE,55,4.0,5.0,65,0.00,,---,0.00,VWS V14.01,2013-09-14 01:44:00,
2013-09-13 20:47:00,66.1,54.0,30.02,NE,55,5.0,6.0,65,0.00,,---,0.00,VWS V14.01,2013-09-14 01:47:00,
2013-09-13 20:48:00,66.1,54.0,30.02,NE,55,5.0,6.0,65,0.00,,---,0.00,VWS V14.01,2013-09-14 01:48:00,
2013-09-13 20:49:00,66.1,54.0,30.02,NE,55,4.0,6.0,65,0.00,,---,0.00,VWS V14.01,2013-09-14 01:49:00,
2013-09-13 20:52:00,66.1,54.0,30.02,NE,55,5.0,5.0,65,0.00,,---,0.00,VWS V14.01,2013-09-14 01:52:00,
2013-09-13 20:53:00,66.0,53.9,30.02,NE,55,5.0,5.0,65,0.00,,---,0.00,VWS V14.01,2013-09-14 01:53:00,
2013-09-13 20:54:00,66.0,53.9,30.02,NE,55,3.0,5.0,65,0.00,,---,0.00,VWS V14.01,2013-09-14 01:54:00,
2013-09-13 20:55:00,66.0,54.3,30.02,NE,55,5.0,5.0,66,0.00,,---,0.00,VWS V14.01,2013-09-14 01:55:00,
2013-09-13 20:57:00,66.0,54.3,30.02,NE,55,5.0,5.0,66,0.00,,---,0.00,VWS V14.01,2013-09-14 01:57:00,
2013-09-13 20:58:00,66.0,54.3,30.02,NE,55,4.0,5.0,66,0.00,,---,0.00,VWS V14.01,2013-09-14 01:58:00,
2013-09-13 20:59:00,65.8,54.1,30.02,NE,55,5.0,5.0,66,0.00,,---,0.00,VWS V14.01,2013-09-14 01:59:00,
2013-09-13 21:00:00,65.8,54.1,30.03,NE,55,5.0,5.0,66,0.00,,---,0.00,VWS V14.01,2013-09-14 02:00:00,
2013-09-13 21:02:00,65.8,54.1,30.03,NE,55,4.0,5.0,66,0.00,,---,0.00,VWS V14.01,2013-09-14 02:02:00,
2013-09-13 21:03:00,65.6,54.4,30.03,NE,55,5.0,5.0,67,0.00,,---,0.00,VWS V14.01,2013-09-14 02:03:00,
2013-09-13 21:04:00,65.6,54.4,30.03,NE,55,4.0,5.0,67,0.00,,---,0.00,VWS V14.01,2013-09-14 02:04:00,
2013-09-13 21:05:00,65.6,54.4,30.03,NE,55,4.0,5.0,67,0.00,,---,0.00,VWS V14.01,2013-09-14 02:05:00,
2013-09-13 21:07:00,65.5,54.3,30.03,NE,55,3.0,5.0,67,0.00,,---,0.00,VWS V14.01,2013-09-14 02:07:00,
2013-09-13 21:08:00,65.5,54.3,30.03,NE,55,3.0,5.0,67,0.00,,---,0.00,VWS V14.01,2013-09-14 02:08:00,
2013-09-13 21:09:00,65.5,54.3,30.03,NE,55,3.0,5.0,67,0.00,,---,0.00,VWS V14.01,2013-09-14 02:09:00,
2013-09-13 21:11:00,65.5,54.3,30.03,NE,55,3.0,4.0,67,0.00,,---,0.00,VWS V14.01,2013-09-14 02:11:00,
2013-09-13 21:12:00,65.3,54.1,30.03,NE,55,3.0,4.0,67,0.00,,---,0.00,VWS V14.01,2013-09-14 02:12:00,
2013-09-13 21:13:00,65.3,54.5,30.03,NE,55,3.0,4.0,68,0.00,,---,0.00,VWS V14.01,2013-09-14 02:13:00,
2013-09-13 21:15:00,65.3,54.5,30.03,NE,55,4.0,4.0,68,0.00,,---,0.00,VWS V14.01,2013-09-14 02:15:00,
2013-09-13 21:16:00,65.2,54.4,30.03,NE,55,3.0,4.0,68,0.00,,---,0.00,VWS V14.01,2013-09-14 02:16:00,
2013-09-13 21:17:00,65.2,54.4,30.03,NE,55,3.0,4.0,68,0.00,,---,0.00,VWS V14.01,2013-09-14 02:17:00,
2013-09-13 21:18:00,65.2,54.4,30.03,NE,55,3.0,4.0,68,0.00,,---,0.00,VWS V14.01,2013-09-14 02:18:00,
2013-09-13 21:20:00,65.0,54.2,30.03,NE,55,4.0,4.0,68,0.00,,---,0.00,VWS V14.01,2013-09-14 02:20:00,
2013-09-13 21:21:00,65.0,54.2,30.03,NE,55,3.0,4.0,68,0.00,,---,0.00,VWS V14.01,2013-09-14 02:21:00,
2013-09-13 21:22:00,65.0,53.8,30.03,NE,55,4.0,4.0,67,0.00,,---,0.00,VWS V14.01,2013-09-14 02:22:00,
2013-09-13 21:23:00,65.0,53.8,30.03,NE,55,4.0,4.0,67,0.00,,---,0.00,VWS V14.01,2013-09-14 02:23:00,
2013-09-13 21:25:00,65.0,53.8,30.03,NE,55,4.0,5.0,67,0.00,,---,0.00,VWS V14.01,2013-09-14 02:25:00,
2013-09-13 21:26:00,65.0,53.4,30.03,NE,55,4.0,5.0,66,0.00,,---,0.00,VWS V14.01,2013-09-14 02:26:00,
2013-09-13 21:27:00,65.0,53.4,30.03,NE,55,4.0,5.0,66,0.00,,---,0.00,VWS V14.01,2013-09-14 02:27:00,
2013-09-13 21:28:00,65.0,53.4,30.03,NE,55,4.0,5.0,66,0.00,,---,0.00,VWS V14.01,2013-09-14 02:28:00,
2013-09-13 21:30:00,65.0,53.4,30.03,NE,55,5.0,5.0,66,0.00,,---,0.00,VWS V14.01,2013-09-14 02:30:00,
2013-09-13 21:32:00,65.0,53.4,30.03,NE,55,5.0,6.0,66,0.00,,---,0.00,VWS V14.01,2013-09-14 02:32:00,
2013-09-13 21:33:00,65.0,53.4,30.03,NE,55,4.0,6.0,66,0.00,,---,0.00,VWS V14.01,2013-09-14 02:33:00,
2013-09-13 21:34:00,64.8,53.2,30.03,NE,55,5.0,6.0,66,0.00,,---,0.00,VWS V14.01,2013-09-14 02:34:00,
2013-09-13 21:35:00,64.8,53.2,30.03,NE,55,4.0,6.0,66,0.00,,---,0.00,VWS V14.01,2013-09-14 02:35:00,
2013-09-13 21:37:00,64.8,53.2,30.03,NE,55,4.0,6.0,66,0.00,,---,0.00,VWS V14.01,2013-09-14 02:37:00,
2013-09-13 21:38:00,64.8,53.2,30.03,NE,55,3.0,6.0,66,0.00,,---,0.00,VWS V14.01,2013-09-14 02:38:00,
2013-09-13 21:39:00,64.8,53.2,30.03,ENE,57,4.0,6.0,66,0.00,,---,0.00,VWS V14.01,2013-09-14 02:39:00,
2013-09-13 21:41:00,64.7,53.1,30.03,ENE,59,3.0,4.0,66,0.00,,---,0.00,VWS V14.01,2013-09-14 02:41:00,
2013-09-13 21:42:00,64.7,53.1,30.03,ENE,59,3.0,4.0,66,0.00,,---,0.00,VWS V14.01,2013-09-14 02:42:00,
2013-09-13 21:43:00,64.7,53.5,30.03,ENE,59,4.0,4.0,67,0.00,,---,0.00,VWS V14.01,2013-09-14 02:43:00,
2013-09-13 21:44:00,64.7,53.5,30.03,ENE,59,5.0,5.0,67,0.00,,---,0.00,VWS V14.01,2013-09-14 02:44:00,
2013-09-13 21:46:00,64.3,53.9,30.03,ENE,59,0.0,5.0,69,0.00,,---,0.00,VWS V14.01,2013-09-14 02:46:00,
2013-09-13 21:47:00,64.3,53.9,30.03,ENE,59,0.0,5.0,69,0.00,,---,0.00,VWS V14.01,2013-09-14 02:47:00,
2013-09-13 21:48:00,64.2,53.8,30.03,NE,54,0.0,5.0,69,0.00,,---,0.00,VWS V14.01,2013-09-14 02:48:00,
2013-09-13 21:49:00,64.2,53.8,30.03,NE,54,0.0,5.0,69,0.00,,---,0.00,VWS V14.01,2013-09-14 02:49:00,
2013-09-13 21:51:00,63.9,53.5,30.03,NE,54,0.0,0.0,69,0.00,,---,0.00,VWS V14.01,2013-09-14 02:51:00,
2013-09-13 21:52:00,63.9,53.5,30.03,NE,54,0.0,0.0,69,0.00,,---,0.00,VWS V14.01,2013-09-14 02:52:00,
2013-09-13 21:53:00,63.9,53.5,30.03,NE,54,0.0,0.0,69,0.00,,---,0.00,VWS V14.01,2013-09-14 02:53:00,
2013-09-13 21:54:00,64.0,53.2,30.03,NE,54,0.0,0.0,68,0.00,,---,0.00,VWS V14.01,2013-09-14 02:54:00,
2013-09-13 21:56:00,64.0,53.2,30.03,NE,55,4.0,5.0,68,0.00,,---,0.00,VWS V14.01,2013-09-14 02:56:00,
2013-09-13 21:57:00,64.0,53.2,30.03,ENE,60,5.0,5.0,68,0.00,,---,0.00,VWS V14.01,2013-09-14 02:57:00,
2013-09-13 21:58:00,64.0,53.2,30.03,ENE,60,5.0,5.0,68,0.00,,---,0.00,VWS V14.01,2013-09-14 02:58:00,
2013-09-13 21:59:00,64.0,53.2,30.03,ENE,60,4.0,5.0,68,0.00,,---,0.00,VWS V14.01,2013-09-14 02:59:00,
2013-09-13 22:00:00,63.9,53.5,30.03,ENE,60,5.0,5.0,69,0.00,,---,0.00,VWS V14.01,2013-09-14 03:00:00,
2013-09-13 22:02:00,63.7,53.7,30.03,ENE,58,4.0,5.0,70,0.00,,---,0.00,VWS V14.01,2013-09-14 03:02:00,
2013-09-13 22:03:00,63.5,53.5,30.03,ENE,58,3.0,5.0,70,0.00,,---,0.00,VWS V14.01,2013-09-14 03:03:00,
2013-09-13 22:04:00,63.5,53.5,30.03,ENE,58,4.0,5.0,70,0.00,,---,0.00,VWS V14.01,2013-09-14 03:04:00,
2013-09-13 22:05:00,63.4,53.8,30.03,ENE,58,5.0,5.0,71,0.00,,---,0.00,VWS V14.01,2013-09-14 03:05:00,
2013-09-13 22:07:00,63.2,53.3,30.03,ENE,57,5.0,6.0,70,0.00,,---,0.00,VWS V14.01,2013-09-14 03:07:00,
2013-09-13 22:08:00,63.2,53.3,30.03,ENE,57,5.0,6.0,70,0.00,,---,0.00,VWS V14.01,2013-09-14 03:08:00,
2013-09-13 22:09:00,63.2,53.3,30.03,ENE,57,4.0,6.0,70,0.00,,---,0.00,VWS V14.01,2013-09-14 03:09:00,
2013-09-13 22:11:00,63.2,53.3,30.03,ENE,57,4.0,4.0,70,0.00,,---,0.00,VWS V14.01,2013-09-14 03:11:00,
2013-09-13 22:12:00,63.2,53.3,30.03,ENE,57,5.0,5.0,70,0.00,,---,0.00,VWS V14.01,2013-09-14 03:12:00,
2013-09-13 22:13:00,63.4,53.5,30.03,ENE,57,5.0,5.0,70,0.00,,---,0.00,VWS V14.01,2013-09-14 03:13:00,
2013-09-13 22:14:00,63.4,53.5,30.03,ENE,57,5.0,5.0,70,0.00,,---,0.00,VWS V14.01,2013-09-14 03:14:00,
2013-09-13 22:16:00,63.4,53.5,30.02,ENE,57,5.0,6.0,70,0.00,,---,0.00,VWS V14.01,2013-09-14 03:16:00,
2013-09-13 22:17:00,63.4,53.5,30.02,ENE,57,4.0,6.0,70,0.00,,---,0.00,VWS V14.01,2013-09-14 03:17:00,
2013-09-13 22:18:00,63.2,53.3,30.02,ENE,57,5.0,6.0,70,0.00,,---,0.00,VWS V14.01,2013-09-14 03:18:00,
2013-09-13 22:19:00,63.2,53.3,30.02,ENE,57,5.0,6.0,70,0.00,,---,0.00,VWS V14.01,2013-09-14 03:19:00,
2013-09-13 22:22:00,63.2,53.3,30.02,ENE,57,5.0,6.0,70,0.00,,---,0.00,VWS V14.01,2013-09-14 03:22:00,
2013-09-13 22:23:00,63.2,53.3,30.02,ENE,57,5.0,6.0,70,0.00,,---,0.00,VWS V14.01,2013-09-14 03:23:00,
2013-09-13 22:24:00,63.1,53.6,30.02,ENE,57,5.0,6.0,71,0.00,,---,0.00,VWS V14.01,2013-09-14 03:24:00,
2013-09-13 22:27:00,62.9,53.4,30.02,ENE,57,5.0,6.0,71,0.00,,---,0.00,VWS V14.01,2013-09-14 03:27:00,
2013-09-13 22:28:00,62.9,53.4,30.02,ENE,57,5.0,6.0,71,0.00,,---,0.00,VWS V14.01,2013-09-14 03:28:00,
2013-09-13 22:29:00,62.9,53.4,30.02,NE,55,5.0,6.0,71,0.00,,---,0.00,VWS V14.01,2013-09-14 03:29:00,
2013-09-13 22:30:00,62.9,53.4,30.03,NE,55,4.0,6.0,71,0.00,,---,0.00,VWS V14.01,2013-09-14 03:30:00,
2013-09-13 22:32:00,62.9,53.4,30.03,NE,56,4.0,4.0,71,0.00,,---,0.00,VWS V14.01,2013-09-14 03:32:00,
2013-09-13 22:33:00,62.7,53.2,30.03,NE,56,3.0,4.0,71,0.00,,---,0.00,VWS V14.01,2013-09-14 03:33:00,
2013-09-13 22:34:00,62.7,53.2,30.03,NE,56,3.0,4.0,71,0.00,,---,0.00,VWS V14.01,2013-09-14 03:34:00,
2013-09-13 22:35:00,62.7,53.2,30.03,NE,56,3.0,4.0,71,0.00,,---,0.00,VWS V14.01,2013-09-14 03:35:00,
2013-09-13 22:37:00,62.7,53.2,30.03,NE,56,2.0,4.0,71,0.00,,---,0.00,VWS V14.01,2013-09-14 03:37:00,
2013-09-13 22:38:00,62.7,53.2,30.03,NE,56,2.0,4.0,71,0.00,,---,0.00,VWS V14.01,2013-09-14 03:38:00,
2013-09-13 22:39:00,62.7,53.5,30.03,NE,56,3.0,4.0,72,0.00,,---,0.00,VWS V14.01,2013-09-14 03:39:00,
2013-09-13 22:40:00,62.7,53.5,30.03,NE,56,3.0,4.0,72,0.00,,---,0.00,VWS V14.01,2013-09-14 03:40:00,
2013-09-13 22:42:00,62.6,53.5,30.03,NE,56,3.0,4.0,72,0.00,,---,0.00,VWS V14.01,2013-09-14 03:42:00,
2013-09-13 22:43:00,62.6,53.5,30.03,NE,56,2.0,4.0,72,0.00,,---,0.00,VWS V14.01,2013-09-14 03:43:00,
2013-09-13 22:44:00,62.6,53.8,30.03,NE,56,2.0,4.0,73,0.00,,---,0.00,VWS V14.01,2013-09-14 03:44:00,
2013-09-13 22:45:00,62.6,53.8,30.03,NE,56,2.0,4.0,73,0.00,,---,0.00,VWS V14.01,2013-09-14 03:45:00,
2013-09-13 22:47:00,62.6,53.8,30.03,NE,56,1.0,4.0,73,0.00,,---,0.00,VWS V14.01,2013-09-14 03:47:00,
2013-09-13 22:48:00,62.6,53.8,30.03,NE,56,3.0,4.0,73,0.00,,---,0.00,VWS V14.01,2013-09-14 03:48:00,
2013-09-13 22:49:00,62.6,53.5,30.03,NE,56,4.0,4.0,72,0.00,,---,0.00,VWS V14.01,2013-09-14 03:49:00,
2013-09-13 22:50:00,62.6,53.5,30.03,NE,56,3.0,4.0,72,0.00,,---,0.00,VWS V14.01,2013-09-14 03:50:00,
2013-09-13 22:52:00,62.6,53.5,30.03,NE,56,3.0,4.0,72,0.00,,---,0.00,VWS V14.01,2013-09-14 03:52:00,
2013-09-13 22:53:00,62.6,53.5,30.03,NE,56,3.0,4.0,72,0.00,,---,0.00,VWS V14.01,2013-09-14 03:53:00,
2013-09-13 22:54:00,62.6,53.5,30.03,NE,56,3.0,5.0,72,0.00,,---,0.00,VWS V14.01,2013-09-14 03:54:00,
2013-09-13 22:56:00,62.6,53.5,30.03,NE,56,3.0,5.0,72,0.00,,---,0.00,VWS V14.01,2013-09-14 03:56:00,
2013-09-13 22:58:00,62.6,53.5,30.03,NE,56,4.0,5.0,72,0.00,,---,0.00,VWS V14.01,2013-09-14 03:58:00,
2013-09-13 22:59:00,62.4,53.6,30.03,NE,56,4.0,5.0,73,0.00,,---,0.00,VWS V14.01,2013-09-14 03:59:00,
2013-09-13 23:01:00,62.4,53.6,30.03,NE,56,4.0,4.0,73,0.00,,---,0.00,VWS V14.01,2013-09-14 04:01:00,
2013-09-13 23:06:00,62.3,53.5,30.03,NE,56,3.0,4.0,73,0.00,,---,0.00,VWS V14.01,2013-09-14 04:06:00,
2013-09-13 23:11:00,62.3,53.9,30.03,NE,56,3.0,3.0,74,0.00,,---,0.00,VWS V14.01,2013-09-14 04:11:00,
2013-09-13 23:16:00,62.0,53.6,30.03,NE,56,4.0,5.0,74,0.00,,---,0.00,VWS V14.01,2013-09-14 04:16:00,
2013-09-13 23:21:00,62.0,53.6,30.03,NE,56,2.0,2.0,74,0.00,,---,0.00,VWS V14.01,2013-09-14 04:21:00,
2013-09-13 23:22:00,62.0,54.0,30.03,NE,56,2.0,3.0,75,0.00,,---,0.00,VWS V14.01,2013-09-14 04:22:00,
2013-09-13 23:26:00,61.8,53.8,30.03,NE,56,0.0,4.0,75,0.00,,---,0.00,VWS V14.01,2013-09-14 04:26:00,
2013-09-13 23:27:00,61.8,53.8,30.03,NE,56,0.0,4.0,75,0.00,,---,0.00,VWS V14.01,2013-09-14 04:27:00,
2013-09-13 23:31:00,61.6,53.6,30.02,NE,56,0.0,0.0,75,0.00,,---,0.00,VWS V14.01,2013-09-14 04:31:00,
2013-09-13 23:32:00,61.6,54.0,30.02,NE,56,0.0,0.0,76,0.00,,---,0.00,VWS V14.01,2013-09-14 04:32:00,
2013-09-13 23:36:00,61.5,53.9,30.02,NE,56,0.0,0.0,76,0.00,,---,0.00,VWS V14.01,2013-09-14 04:36:00,
2013-09-13 23:37:00,61.5,53.9,30.02,NE,56,0.0,0.0,76,0.00,,---,0.00,VWS V14.01,2013-09-14 04:37:00,
2013-09-13 23:41:00,61.5,53.9,30.02,NE,56,0.0,0.0,76,0.00,,---,0.00,VWS V14.01,2013-09-14 04:41:00,
2013-09-13 23:42:00,61.5,53.9,30.02,NE,56,0.0,0.0,76,0.00,,---,0.00,VWS V14.01,2013-09-14 04:42:00,
2013-09-13 23:46:00,61.6,54.0,30.03,NE,56,0.0,0.0,76,0.00,,---,0.00,VWS V14.01,2013-09-14 04:46:00,
2013-09-13 23:47:00,61.6,54.0,30.03,NE,56,0.0,0.0,76,0.00,,---,0.00,VWS V14.01,2013-09-14 04:47:00,
2013-09-13 23:51:00,61.6,53.6,30.03,NE,56,0.0,0.0,75,0.00,,---,0.00,VWS V14.01,2013-09-14 04:51:00,
2013-09-13 23:52:00,61.8,53.8,30.03,NE,56,0.0,0.0,75,0.00,,---,0.00,VWS V14.01,2013-09-14 04:52:00,
2013-09-13 23:53:00,61.8,53.8,30.03,NE,56,0.0,0.0,75,0.00,,---,0.00,VWS V14.01,2013-09-14 04:53:00,
2013-09-13 23:56:00,61.8,53.8,30.03,NE,56,0.0,0.0,75,0.00,,---,0.00,VWS V14.01,2013-09-14 04:56:00,
2013-09-13 23:57:00,61.8,53.4,30.03,NE,56,0.0,0.0,74,0.00,,---,0.00,VWS V14.01,2013-09-14 04:57:00,
2013-09-13 23:58:00,62.0,53.6,30.03,NE,56,0.0,0.0,74,0.00,,---,0.00,VWS V14.01,2013-09-14 04:58:00,